Observation data for Caprock Canyons on 12/09/2018      Previous  Date       Current Mesonet Observations  Soil Data  Daily Summary Page  Observations in Plain Language
KQU1 090600Z 28007KT M03/M04 A3032 RMK A01 T10291044  RH  089%=      5-min Rain = 0
KQU1 090601Z 28007KT M03/M05 A3032 RMK A01 T10291045  RH  089%=      5-min Rain = 0
KQU1 090602Z 28007KT M03/M05 A3032 RMK A01 T10301045  RH  089%=      5-min Rain = 0
KQU1 090603Z 28007KT M03/M05 A3032 RMK A01 T10301045  RH  090%=      5-min Rain = 0
KQU1 090604Z 29006KT M03/M05 A3032 RMK A01 T10301045  RH  090%=      5-min Rain = 0
KQU1 090605Z 29006KT M03/M05 A3032 RMK A01 T10301045  RH  090%=      5-min Rain = 0
KQU1 090606Z 29006KT M03/M05 A3032 RMK A01 T10301045  RH  090%=      5-min Rain = 0
KQU1 090607Z 29007KT M03/M05 A3032 RMK A01 T10301045  RH  090%=      5-min Rain = 0
KQU1 090608Z 29007KT M03/M05 A3032 RMK A01 T10301045  RH  090%=      5-min Rain = 0
KQU1 090609Z 29007KT M03/M05 A3032 RMK A01 T10311045  RH  090%=      5-min Rain = 0
KQU1 090610Z 28007KT M03/M05 A3032 RMK A01 T10311045  RH  090%=      5-min Rain = 0
KQU1 090611Z 28006KT M03/M05 A3032 RMK A01 T10311046  RH  090%=      5-min Rain = 0
KQU1 090612Z 28006KT M03/M05 A3032 RMK A01 T10321046  RH  090%=      5-min Rain = 0
KQU1 090613Z 28006KT M03/M05 A3032 RMK A01 T10321046  RH  090%=      5-min Rain = 0
KQU1 090614Z 28007KT M03/M05 A3032 RMK A01 T10321046  RH  090%=      5-min Rain = 0
KQU1 090615Z 28007KT M03/M05 A3032 RMK A01 T10321046  RH  090%=      5-min Rain = 0
KQU1 090616Z 28007KT M03/M05 A3032 RMK A01 T10321046  RH  090%=      5-min Rain = 0
KQU1 090617Z 28008KT M03/M05 A3032 RMK A01 T10321045  RH  090%=      5-min Rain = 0
KQU1 090618Z 28007KT M03/M05 A3032 RMK A01 T10311045  RH  090%=      5-min Rain = 0
KQU1 090619Z 28007KT M03/M05 A3032 RMK A01 T10311045  RH  090%=      5-min Rain = 0
KQU1 090620Z 28007KT M03/M05 A3032 RMK A01 T10311045  RH  090%=      5-min Rain = 0
KQU1 090621Z 28006KT M03/M05 A3032 RMK A01 T10321046  RH  090%=      5-min Rain = 0
KQU1 090622Z 28006KT M03/M05 A3032 RMK A01 T10321046  RH  090%=      5-min Rain = 0
KQU1 090623Z 28007KT M03/M05 A3032 RMK A01 T10321046  RH  090%=      5-min Rain = 0
KQU1 090624Z 28007KT M03/M05 A3032 RMK A01 T10321046  RH  090%=      5-min Rain = 0
KQU1 090625Z 28007KT M03/M05 A3032 RMK A01 T10331046  RH  090%=      5-min Rain = 0
KQU1 090626Z 28007KT M03/M05 A3032 RMK A01 T10331046  RH  090%=      5-min Rain = 0
KQU1 090627Z 28006KT M03/M05 A3032 RMK A01 T10331046  RH  091%=      5-min Rain = 0
KQU1 090628Z 28006KT M03/M05 A3032 RMK A01 T10331046  RH  091%=      5-min Rain = 0
KQU1 090629Z 28006KT M03/M05 A3032 RMK A01 T10331047  RH  090%=      5-min Rain = 0
KQU1 090630Z 28006KT M03/M05 A3032 RMK A01 T10341047  RH  091%=      5-min Rain = 0
KQU1 090631Z 28006KT M03/M05 A3032 RMK A01 T10341047  RH  091%=      5-min Rain = 0
KQU1 090632Z 28006KT M04/M05 A3032 RMK A01 T10351048  RH  091%=      5-min Rain = 0
KQU1 090633Z 27006KT M04/M05 A3032 RMK A01 T10351048  RH  091%=      5-min Rain = 0
KQU1 090634Z 27007KT M04/M05 A3032 RMK A01 T10361049  RH  091%=      5-min Rain = 0
KQU1 090635Z 27007KT M04/M05 A3032 RMK A01 T10361048  RH  091%=      5-min Rain = 0
KQU1 090636Z 27008KT M04/M05 A3032 RMK A01 T10351047  RH  092%=      5-min Rain = 0
KQU1 090637Z 27008KT M03/M05 A3032 RMK A01 T10341046  RH  092%=      5-min Rain = 0
KQU1 090638Z 27008KT M03/M05 A3032 RMK A01 T10331045  RH  092%=      5-min Rain = 0
KQU1 090639Z 27008KT M03/M04 A3032 RMK A01 T10331044  RH  092%=      5-min Rain = 0
KQU1 090640Z 27008KT M03/M04 A3032 RMK A01 T10321044  RH  091%=      5-min Rain = 0
KQU1 090641Z 28007KT M03/M04 A3032 RMK A01 T10321044  RH  091%=      5-min Rain = 0
KQU1 090642Z 28007KT M03/M05 A3032 RMK A01 T10321045  RH  091%=      5-min Rain = 0
KQU1 090643Z 28007KT M03/M05 A3032 RMK A01 T10321045  RH  091%=      5-min Rain = 0
KQU1 090644Z 28007KT M03/M05 A3032 RMK A01 T10321045  RH  091%=      5-min Rain = 0
KQU1 090645Z 28007KT M03/M05 A3032 RMK A01 T10321045  RH  091%=      5-min Rain = 0
KQU1 090646Z 28007KT M03/M05 A3032 RMK A01 T10321046  RH  090%=      5-min Rain = 0
KQU1 090647Z 28007KT M03/M05 A3033 RMK A01 T10331046  RH  090%=      5-min Rain = 0
KQU1 090648Z 27007KT M03/M05 A3033 RMK A01 T10341047  RH  091%=      5-min Rain = 0
KQU1 090649Z 27008KT M03/M05 A3033 RMK A01 T10341047  RH  091%=      5-min Rain = 0
KQU1 090650Z 27008KT M03/M05 A3033 RMK A01 T10341046  RH  091%=      5-min Rain = 0
KQU1 090651Z 27008KT M03/M05 A3033 RMK A01 T10341046  RH  091%=      5-min Rain = 0
KQU1 090652Z 28008KT M03/M05 A3033 RMK A01 T10331045  RH  091%=      5-min Rain = 0
KQU1 090653Z 28007KT M03/M05 A3032 RMK A01 T10321045  RH  091%=      5-min Rain = 0
KQU1 090654Z 28007KT M03/M04 A3032 RMK A01 T10321044  RH  091%=      5-min Rain = 0
KQU1 090655Z 28007KT M03/M04 A3032 RMK A01 T10311044  RH  091%=      5-min Rain = 0
KQU1 090656Z 28006KT M03/M05 A3032 RMK A01 T10311045  RH  090%=      5-min Rain = 0
KQU1 090657Z 28007KT M03/M05 A3032 RMK A01 T10321046  RH  090%=      5-min Rain = 0
KQU1 090658Z 28006KT M03/M05 A3032 RMK A01 T10331047  RH  090%=      5-min Rain = 0
KQU1 090659Z 28006KT M03/M05 A3032 RMK A01 T10331047  RH  090%=      5-min Rain = 0
KQU1 090700Z 28006KT M03/M05 A3032 RMK A01 T10341048  RH  090%=      5-min Rain = 0
KQU1 090701Z 28006KT M04/M05 A3032 RMK A01 T10351048  RH  090%=      5-min Rain = 0
KQU1 090702Z 28006KT M04/M05 A3032 RMK A01 T10351049  RH  091%=      5-min Rain = 0
KQU1 090703Z 28006KT M04/M05 A3032 RMK A01 T10361049  RH  091%=      5-min Rain = 0
KQU1 090704Z 28006KT M04/M05 A3032 RMK A01 T10371050  RH  091%=      5-min Rain = 0
KQU1 090705Z 28007KT M04/M05 A3032 RMK A01 T10371050  RH  091%=      5-min Rain = 0
KQU1 090706Z 28007KT M04/M05 A3032 RMK A01 T10381050  RH  091%=      5-min Rain = 0
KQU1 090707Z 28006KT M04/M05 A3032 RMK A01 T10381049  RH  092%=      5-min Rain = 0
KQU1 090708Z 28006KT M04/M05 A3032 RMK A01 T10371049  RH  092%=      5-min Rain = 0
KQU1 090709Z 29006KT M04/M05 A3032 RMK A01 T10381049  RH  092%=      5-min Rain = 0
KQU1 090710Z 29006KT M04/M05 A3032 RMK A01 T10381049  RH  092%=      5-min Rain = 0
KQU1 090711Z 28006KT M04/M05 A3032 RMK A01 T10381050  RH  091%=      5-min Rain = 0
KQU1 090712Z 28006KT M04/M05 A3032 RMK A01 T10391050  RH  092%=      5-min Rain = 0
KQU1 090713Z 29006KT M04/M05 A3032 RMK A01 T10391050  RH  092%=      5-min Rain = 0
KQU1 090714Z 29006KT M04/M05 A3032 RMK A01 T10391050  RH  092%=      5-min Rain = 0
KQU1 090715Z 29006KT M04/M05 A3032 RMK A01 T10391050  RH  092%=      5-min Rain = 0
KQU1 090716Z 28005KT M04/M05 A3032 RMK A01 T10391050  RH  092%=      5-min Rain = 0
KQU1 090717Z 28006KT M04/M05 A3032 RMK A01 T10391051  RH  092%=      5-min Rain = 0
KQU1 090718Z 28006KT M04/M05 A3032 RMK A01 T10391051  RH  092%=      5-min Rain = 0
KQU1 090719Z 28006KT M04/M05 A3032 RMK A01 T10401052  RH  092%=      5-min Rain = 0
KQU1 090720Z 28005KT M04/M05 A3032 RMK A01 T10401052  RH  092%=      5-min Rain = 0
KQU1 090721Z 28006KT M04/M05 A3032 RMK A01 T10401051  RH  092%=      5-min Rain = 0
KQU1 090722Z 28006KT M04/M05 A3032 RMK A01 T10401052  RH  092%=      5-min Rain = 0
KQU1 090723Z 28006KT M04/M05 A3032 RMK A01 T10401051  RH  092%=      5-min Rain = 0
KQU1 090724Z 28006KT M04/M05 A3032 RMK A01 T10401051  RH  092%=      5-min Rain = 0
KQU1 090725Z 28006KT M04/M05 A3032 RMK A01 T10411052  RH  092%=      5-min Rain = 0
KQU1 090726Z 28006KT M04/M05 A3032 RMK A01 T10421053  RH  092%=      5-min Rain = 0
KQU1 090727Z 28006KT M04/M05 A3032 RMK A01 T10421053  RH  092%=      5-min Rain = 0
KQU1 090728Z 28006KT M04/M05 A3032 RMK A01 T10421053  RH  092%=      5-min Rain = 0
KQU1 090729Z 29006KT M04/M05 A3032 RMK A01 T10421053  RH  093%=      5-min Rain = 0
KQU1 090730Z 28006KT M04/M05 A3032 RMK A01 T10421053  RH  093%=      5-min Rain = 0
KQU1 090731Z 28006KT M04/M05 A3032 RMK A01 T10431053  RH  092%=      5-min Rain = 0
KQU1 090732Z 29006KT M04/M05 A3032 RMK A01 T10431053  RH  093%=      5-min Rain = 0
KQU1 090733Z 28006KT M04/M05 A3032 RMK A01 T10431053  RH  093%=      5-min Rain = 0
KQU1 090734Z 28006KT M04/M05 A3032 RMK A01 T10431053  RH  093%=      5-min Rain = 0
KQU1 090735Z 29006KT M04/M05 A3032 RMK A01 T10431053  RH  093%=      5-min Rain = 0
KQU1 090736Z 29006KT M04/M05 A3032 RMK A01 T10431053  RH  093%=      5-min Rain = 0
KQU1 090737Z 29006KT M04/M05 A3032 RMK A01 T10441054  RH  093%=      5-min Rain = 0
KQU1 090738Z 29006KT M04/M05 A3032 RMK A01 T10441054  RH  093%=      5-min Rain = 0
KQU1 090739Z 28006KT M04/M05 A3032 RMK A01 T10441054  RH  093%=      5-min Rain = 0
KQU1 090740Z 29006KT M04/M05 A3032 RMK A01 T10441054  RH  093%=      5-min Rain = 0
KQU1 090741Z 28006KT M04/M05 A3032 RMK A01 T10441054  RH  093%=      5-min Rain = 0
KQU1 090742Z 28006KT M04/M05 A3032 RMK A01 T10441054  RH  093%=      5-min Rain = 0
KQU1 090743Z 28006KT M04/M05 A3032 RMK A01 T10441054  RH  093%=      5-min Rain = 0
KQU1 090744Z 28006KT M04/M05 A3032 RMK A01 T10441054  RH  093%=      5-min Rain = 0
KQU1 090745Z 27006KT M04/M05 A3032 RMK A01 T10441054  RH  093%=      5-min Rain = 0
KQU1 090746Z 27006KT M04/M06 A3032 RMK A01 T10441055  RH  093%=      5-min Rain = 0
KQU1 090747Z 27006KT M05/M06 A3032 RMK A01 T10451055  RH  093%=      5-min Rain = 0
KQU1 090748Z 27007KT M05/M06 A3032 RMK A01 T10451056  RH  092%=      5-min Rain = 0
KQU1 090749Z 27007KT M05/M06 A3032 RMK A01 T10461056  RH  093%=      5-min Rain = 0
KQU1 090750Z 27007KT M05/M06 A3032 RMK A01 T10461056  RH  093%=      5-min Rain = 0
KQU1 090751Z 27007KT M05/M06 A3032 RMK A01 T10461056  RH  093%=      5-min Rain = 0
KQU1 090752Z 27007KT M05/M06 A3032 RMK A01 T10461055  RH  093%=      5-min Rain = 0
KQU1 090753Z 27008KT M05/M06 A3032 RMK A01 T10451055  RH  093%=      5-min Rain = 0
KQU1 090754Z 27008KT M04/M05 A3032 RMK A01 T10441053  RH  093%=      5-min Rain = 0
KQU1 090755Z 27008KT M04/M05 A3032 RMK A01 T10421052  RH  093%=      5-min Rain = 0
KQU1 090756Z 27008KT M04/M05 A3032 RMK A01 T10411051  RH  093%=      5-min Rain = 0
KQU1 090757Z 27008KT M04/M05 A3032 RMK A01 T10401050  RH  092%=      5-min Rain = 0
KQU1 090758Z 28008KT M04/M05 A3032 RMK A01 T10391050  RH  092%=      5-min Rain = 0
KQU1 090759Z 28008KT M04/M05 A3032 RMK A01 T10381051  RH  091%=      5-min Rain = 0
KQU1 090800Z 28007KT M04/M05 A3032 RMK A01 T10381051  RH  091%=      5-min Rain = 0
KQU1 090801Z 28007KT M04/M05 A3032 RMK A01 T10381051  RH  091%=      5-min Rain = 0
KQU1 090802Z 28007KT M04/M05 A3032 RMK A01 T10381051  RH  090%=      5-min Rain = 0
KQU1 090803Z 28007KT M04/M05 A3032 RMK A01 T10381052  RH  090%=      5-min Rain = 0
KQU1 090804Z 28007KT M04/M06 A3032 RMK A01 T10401055  RH  090%=      5-min Rain = 0
KQU1 090805Z 28006KT M04/M06 A3032 RMK A01 T10421056  RH  090%=      5-min Rain = 0
KQU1 090806Z 29006KT M04/M06 A3032 RMK A01 T10431057  RH  090%=      5-min Rain = 0
KQU1 090807Z 29006KT M04/M06 A3032 RMK A01 T10441058  RH  090%=      5-min Rain = 0
KQU1 090808Z 29006KT M05/M06 A3032 RMK A01 T10451058  RH  091%=      5-min Rain = 0
KQU1 090809Z 28006KT M05/M06 A3032 RMK A01 T10451057  RH  091%=      5-min Rain = 0
KQU1 090810Z 28006KT M05/M06 A3032 RMK A01 T10451057  RH  091%=      5-min Rain = 0
KQU1 090811Z 28006KT M05/M06 A3032 RMK A01 T10451057  RH  091%=      5-min Rain = 0
KQU1 090812Z 28006KT M05/M06 A3032 RMK A01 T10451057  RH  092%=      5-min Rain = 0
KQU1 090813Z 27006KT M05/M06 A3032 RMK A01 T10461057  RH  092%=      5-min Rain = 0
KQU1 090814Z 27006KT M05/M06 A3032 RMK A01 T10461058  RH  092%=      5-min Rain = 0
KQU1 090815Z 27006KT M05/M06 A3032 RMK A01 T10461058  RH  092%=      5-min Rain = 0
KQU1 090816Z 28006KT M05/M06 A3032 RMK A01 T10461058  RH  092%=      5-min Rain = 0
KQU1 090817Z 28006KT M05/M06 A3032 RMK A01 T10471058  RH  092%=      5-min Rain = 0
KQU1 090818Z 28006KT M05/M06 A3032 RMK A01 T10471058  RH  092%=      5-min Rain = 0
KQU1 090819Z 28007KT M05/M06 A3032 RMK A01 T10471058  RH  092%=      5-min Rain = 0
KQU1 090820Z 28007KT M05/M06 A3032 RMK A01 T10471059  RH  092%=      5-min Rain = 0
KQU1 090821Z 28007KT M05/M06 A3032 RMK A01 T10471059  RH  092%=      5-min Rain = 0
KQU1 090822Z 28007KT M05/M06 A3032 RMK A01 T10471058  RH  092%=      5-min Rain = 0
KQU1 090823Z 28006KT M05/M06 A3032 RMK A01 T10471058  RH  092%=      5-min Rain = 0
KQU1 090824Z 28006KT M05/M06 A3032 RMK A01 T10471058  RH  092%=      5-min Rain = 0
KQU1 090825Z 28006KT M05/M06 A3032 RMK A01 T10471058  RH  092%=      5-min Rain = 0
KQU1 090826Z 28006KT M05/M06 A3032 RMK A01 T10471058  RH  092%=      5-min Rain = 0
KQU1 090827Z 28006KT M05/M06 A3032 RMK A01 T10481059  RH  092%=      5-min Rain = 0
KQU1 090828Z 28007KT M05/M06 A3032 RMK A01 T10481060  RH  092%=      5-min Rain = 0
KQU1 090829Z 28007KT M05/M06 A3032 RMK A01 T10481058  RH  093%=      5-min Rain = 0
KQU1 090830Z 27007KT M05/M06 A3032 RMK A01 T10481058  RH  092%=      5-min Rain = 0
KQU1 090831Z 28007KT M05/M06 A3032 RMK A01 T10471058  RH  093%=      5-min Rain = 0
KQU1 090832Z 28007KT M05/M06 A3032 RMK A01 T10471057  RH  093%=      5-min Rain = 0
KQU1 090833Z 28007KT M05/M06 A3032 RMK A01 T10461057  RH  092%=      5-min Rain = 0
KQU1 090834Z 28007KT M05/M06 A3032 RMK A01 T10461057  RH  092%=      5-min Rain = 0
KQU1 090835Z 28007KT M05/M06 A3032 RMK A01 T10461057  RH  092%=      5-min Rain = 0
KQU1 090836Z 28007KT M05/M06 A3032 RMK A01 T10461057  RH  092%=      5-min Rain = 0
KQU1 090837Z 28007KT M05/M06 A3032 RMK A01 T10461057  RH  092%=      5-min Rain = 0
KQU1 090838Z 28007KT M05/M06 A3032 RMK A01 T10451056  RH  092%=      5-min Rain = 0
KQU1 090839Z 28007KT M05/M06 A3032 RMK A01 T10451056  RH  092%=      5-min Rain = 0
KQU1 090840Z 28008KT M05/M06 A3032 RMK A01 T10451056  RH  092%=      5-min Rain = 0
KQU1 090841Z 28007KT M04/M06 A3032 RMK A01 T10441055  RH  092%=      5-min Rain = 0
KQU1 090842Z 28007KT M04/M06 A3032 RMK A01 T10441056  RH  091%=      5-min Rain = 0
KQU1 090843Z 28007KT M04/M06 A3032 RMK A01 T10441057  RH  091%=      5-min Rain = 0
KQU1 090844Z 28007KT M05/M06 A3032 RMK A01 T10451057  RH  091%=      5-min Rain = 0
KQU1 090845Z 29007KT M05/M06 A3032 RMK A01 T10451057  RH  091%=      5-min Rain = 0
KQU1 090846Z 29007KT M05/M06 A3032 RMK A01 T10461059  RH  091%=      5-min Rain = 0
KQU1 090847Z 29006KT M05/M06 A3032 RMK A01 T10471059  RH  091%=      5-min Rain = 0
KQU1 090848Z 29006KT M05/M06 A3032 RMK A01 T10471059  RH  091%=      5-min Rain = 0
KQU1 090849Z 29006KT M05/M06 A3032 RMK A01 T10471059  RH  091%=      5-min Rain = 0
KQU1 090850Z 29007KT M05/M06 A3032 RMK A01 T10471059  RH  091%=      5-min Rain = 0
KQU1 090851Z 29008KT M05/M06 A3032 RMK A01 T10461058  RH  092%=      5-min Rain = 0
KQU1 090852Z 29008KT M05/M06 A3032 RMK A01 T10461057  RH  092%=      5-min Rain = 0
KQU1 090853Z 29008KT M05/M06 A3032 RMK A01 T10451057  RH  092%=      5-min Rain = 0
KQU1 090854Z 29007KT M05/M06 A3032 RMK A01 T10451057  RH  091%=      5-min Rain = 0
KQU1 090855Z 29007KT M05/M06 A3032 RMK A01 T10461058  RH  091%=      5-min Rain = 0
KQU1 090856Z 29007KT M05/M06 A3032 RMK A01 T10461058  RH  091%=      5-min Rain = 0
KQU1 090857Z 29007KT M05/M06 A3032 RMK A01 T10461058  RH  091%=      5-min Rain = 0
KQU1 090858Z 29007KT M05/M06 A3032 RMK A01 T10461058  RH  091%=      5-min Rain = 0
KQU1 090859Z 29007KT M05/M06 A3032 RMK A01 T10471058  RH  091%=      5-min Rain = 0
KQU1 090900Z 29007KT M05/M06 A3032 RMK A01 T10471059  RH  092%=      5-min Rain = 0
KQU1 090901Z 30007KT M05/M06 A3032 RMK A01 T10471058  RH  092%=      5-min Rain = 0
KQU1 090902Z 29007KT M05/M06 A3032 RMK A01 T10471059  RH  092%=      5-min Rain = 0
KQU1 090903Z 30007KT M05/M06 A3032 RMK A01 T10471059  RH  092%=      5-min Rain = 0
KQU1 090904Z 30007KT M05/M06 A3032 RMK A01 T10471059  RH  092%=      5-min Rain = 0
KQU1 090905Z 30007KT M05/M06 A3032 RMK A01 T10471059  RH  092%=      5-min Rain = 0
KQU1 090906Z 30007KT M05/M06 A3032 RMK A01 T10471059  RH  091%=      5-min Rain = 0
KQU1 090907Z 30007KT M05/M06 A3032 RMK A01 T10471059  RH  091%=      5-min Rain = 0
KQU1 090908Z 29007KT M05/M06 A3032 RMK A01 T10471059  RH  091%=      5-min Rain = 0
KQU1 090909Z 30006KT M05/M06 A3032 RMK A01 T10471059  RH  091%=      5-min Rain = 0
KQU1 090910Z 30006KT M05/M06 A3032 RMK A01 T10471059  RH  091%=      5-min Rain = 0
KQU1 090911Z 30007KT M05/M06 A3032 RMK A01 T10471059  RH  091%=      5-min Rain = 0
KQU1 090912Z 29006KT M05/M06 A3032 RMK A01 T10471060  RH  091%=      5-min Rain = 0
KQU1 090913Z 30006KT M05/M06 A3032 RMK A01 T10481060  RH  091%=      5-min Rain = 0
KQU1 090914Z 29007KT M05/M06 A3032 RMK A01 T10481060  RH  091%=      5-min Rain = 0
KQU1 090915Z 30007KT M05/M06 A3032 RMK A01 T10481060  RH  091%=      5-min Rain = 0
KQU1 090916Z 30007KT M05/M06 A3032 RMK A01 T10481060  RH  091%=      5-min Rain = 0
KQU1 090917Z 30007KT M05/M06 A3032 RMK A01 T10471059  RH  092%=      5-min Rain = 0
KQU1 090918Z 30007KT M05/M06 A3032 RMK A01 T10471059  RH  091%=      5-min Rain = 0
KQU1 090919Z 30007KT M05/M06 A3032 RMK A01 T10471059  RH  091%=      5-min Rain = 0
KQU1 090920Z 30006KT M05/M06 A3032 RMK A01 T10471059  RH  091%=      5-min Rain = 0
KQU1 090921Z 30006KT M05/M06 A3032 RMK A01 T10471059  RH  091%=      5-min Rain = 0
KQU1 090922Z 30006KT M05/M06 A3032 RMK A01 T10471060  RH  091%=      5-min Rain = 0
KQU1 090923Z 30006KT M05/M06 A3032 RMK A01 T10481061  RH  091%=      5-min Rain = 0
KQU1 090924Z 30006KT M05/M06 A3032 RMK A01 T10481061  RH  091%=      5-min Rain = 0
KQU1 090925Z 30006KT M05/M06 A3032 RMK A01 T10481061  RH  091%=      5-min Rain = 0
KQU1 090926Z 30006KT M05/M06 A3032 RMK A01 T10481061  RH  091%=      5-min Rain = 0
KQU1 090927Z 30006KT M05/M06 A3032 RMK A01 T10481061  RH  091%=      5-min Rain = 0
KQU1 090928Z 30007KT M05/M06 A3032 RMK A01 T10491061  RH  091%=      5-min Rain = 0
KQU1 090929Z 30007KT M05/M06 A3032 RMK A01 T10491061  RH  091%=      5-min Rain = 0
KQU1 090930Z 30007KT M05/M06 A3032 RMK A01 T10481061  RH  091%=      5-min Rain = 0
KQU1 090931Z 30007KT M05/M06 A3032 RMK A01 T10481061  RH  091%=      5-min Rain = 0
KQU1 090932Z 30007KT M05/M06 A3032 RMK A01 T10481060  RH  091%=      5-min Rain = 0
KQU1 090933Z 30007KT M05/M06 A3032 RMK A01 T10481060  RH  091%=      5-min Rain = 0
KQU1 090934Z 30007KT M05/M06 A3032 RMK A01 T10481061  RH  091%=      5-min Rain = 0
KQU1 090935Z 30007KT M05/M06 A3032 RMK A01 T10491062  RH  091%=      5-min Rain = 0
KQU1 090936Z 30006KT M05/M06 A3032 RMK A01 T10491062  RH  091%=      5-min Rain = 0
KQU1 090937Z 30007KT M05/M06 A3032 RMK A01 T10501063  RH  091%=      5-min Rain = 0
KQU1 090938Z 30007KT M05/M06 A3032 RMK A01 T10501062  RH  091%=      5-min Rain = 0
KQU1 090939Z 29007KT M05/M06 A3032 RMK A01 T10501062  RH  091%=      5-min Rain = 0
KQU1 090940Z 29007KT M05/M06 A3032 RMK A01 T10501063  RH  091%=      5-min Rain = 0
KQU1 090941Z 30007KT M05/M06 A3032 RMK A01 T10511062  RH  091%=      5-min Rain = 0
KQU1 090942Z 30007KT M05/M06 A3032 RMK A01 T10511062  RH  092%=      5-min Rain = 0
KQU1 090943Z 30007KT M05/M06 A3032 RMK A01 T10501061  RH  092%=      5-min Rain = 0
KQU1 090944Z 30007KT M05/M06 A3032 RMK A01 T10501061  RH  092%=      5-min Rain = 0
KQU1 090945Z 30007KT M05/M06 A3032 RMK A01 T10501061  RH  092%=      5-min Rain = 0
KQU1 090946Z 30006KT M05/M06 A3032 RMK A01 T10501061  RH  092%=      5-min Rain = 0
KQU1 090947Z 30006KT M05/M06 A3032 RMK A01 T10491061  RH  092%=      5-min Rain = 0
KQU1 090948Z 30006KT M05/M06 A3032 RMK A01 T10491061  RH  092%=      5-min Rain = 0
KQU1 090949Z 30006KT M05/M06 A3032 RMK A01 T10501062  RH  091%=      5-min Rain = 0
KQU1 090950Z 31006KT M05/M06 A3032 RMK A01 T10501062  RH  091%=      5-min Rain = 0
KQU1 090951Z 31006KT M05/M06 A3032 RMK A01 T10511063  RH  091%=      5-min Rain = 0
KQU1 090952Z 31006KT M05/M06 A3032 RMK A01 T10511064  RH  091%=      5-min Rain = 0
KQU1 090953Z 30006KT M05/M07 A3032 RMK A01 T10521065  RH  091%=      5-min Rain = 0
KQU1 090954Z 30006KT M05/M07 A3032 RMK A01 T10531066  RH  091%=      5-min Rain = 0
KQU1 090955Z 30006KT M05/M07 A3032 RMK A01 T10541066  RH  091%=      5-min Rain = 0
KQU1 090956Z 31006KT M05/M07 A3032 RMK A01 T10541065  RH  092%=      5-min Rain = 0
KQU1 090957Z 30006KT M05/M06 A3032 RMK A01 T10531064  RH  092%=      5-min Rain = 0
KQU1 090958Z 30007KT M05/M06 A3032 RMK A01 T10521064  RH  092%=      5-min Rain = 0
KQU1 090959Z 30007KT M05/M06 A3032 RMK A01 T10521063  RH  092%=      5-min Rain = 0
KQU1 091000Z 30006KT M05/M06 A3032 RMK A01 T10511062  RH  092%=      5-min Rain = 0
KQU1 091001Z 30007KT M05/M06 A3032 RMK A01 T10511062  RH  092%=      5-min Rain = 0
KQU1 091002Z 30007KT M05/M06 A3032 RMK A01 T10501062  RH  092%=      5-min Rain = 0
KQU1 091003Z 30007KT M05/M06 A3032 RMK A01 T10501062  RH  091%=      5-min Rain = 0
KQU1 091004Z 30007KT M05/M06 A3032 RMK A01 T10511063  RH  091%=      5-min Rain = 0
KQU1 091005Z 30007KT M05/M06 A3032 RMK A01 T10511063  RH  091%=      5-min Rain = 0
KQU1 091006Z 30007KT M05/M06 A3032 RMK A01 T10521063  RH  092%=      5-min Rain = 0
KQU1 091007Z 31007KT M05/M06 A3032 RMK A01 T10521063  RH  092%=      5-min Rain = 0
KQU1 091008Z 30007KT M05/M06 A3032 RMK A01 T10521063  RH  092%=      5-min Rain = 0
KQU1 091009Z 30007KT M05/M06 A3032 RMK A01 T10521064  RH  091%=      5-min Rain = 0
KQU1 091010Z 30007KT M05/M06 A3032 RMK A01 T10521063  RH  092%=      5-min Rain = 0
KQU1 091011Z 30007KT M05/M06 A3032 RMK A01 T10511062  RH  092%=      5-min Rain = 0
KQU1 091012Z 30008KT M05/M06 A3032 RMK A01 T10511063  RH  092%=      5-min Rain = 0
KQU1 091013Z 30007KT M05/M06 A3032 RMK A01 T10511063  RH  091%=      5-min Rain = 0
KQU1 091014Z 30007KT M05/M06 A3032 RMK A01 T10511063  RH  091%=      5-min Rain = 0
KQU1 091015Z 30007KT M05/M06 A3032 RMK A01 T10511063  RH  091%=      5-min Rain = 0
KQU1 091016Z 30007KT M05/M06 A3032 RMK A01 T10501062  RH  091%=      5-min Rain = 0
KQU1 091017Z 30007KT M05/M06 A3032 RMK A01 T10501062  RH  091%=      5-min Rain = 0
KQU1 091018Z 30007KT M05/M06 A3032 RMK A01 T10501062  RH  091%=      5-min Rain = 0
KQU1 091019Z 30007KT M05/M06 A3032 RMK A01 T10501062  RH  091%=      5-min Rain = 0
KQU1 091020Z 31007KT M05/M06 A3032 RMK A01 T10491062  RH  091%=      5-min Rain = 0
KQU1 091021Z 30007KT M05/M06 A3032 RMK A01 T10491061  RH  091%=      5-min Rain = 0
KQU1 091022Z 31007KT M05/M06 A3032 RMK A01 T10481061  RH  091%=      5-min Rain = 0
KQU1 091023Z 31006KT M05/M06 A3032 RMK A01 T10481061  RH  091%=      5-min Rain = 0
KQU1 091024Z 31007KT M05/M06 A3032 RMK A01 T10481062  RH  090%=      5-min Rain = 0
KQU1 091025Z 30007KT M05/M06 A3032 RMK A01 T10481062  RH  090%=      5-min Rain = 0
KQU1 091026Z 31007KT M05/M06 A3032 RMK A01 T10481061  RH  091%=      5-min Rain = 0
KQU1 091027Z 30007KT M05/M06 A3032 RMK A01 T10481061  RH  090%=      5-min Rain = 0
KQU1 091028Z 30006KT M05/M06 A3032 RMK A01 T10471061  RH  090%=      5-min Rain = 0
KQU1 091029Z 30007KT M05/M06 A3032 RMK A01 T10471061  RH  090%=      5-min Rain = 0
KQU1 091030Z 30007KT M05/M06 A3031 RMK A01 T10471060  RH  090%=      5-min Rain = 0
KQU1 091031Z 30007KT M05/M06 A3031 RMK A01 T10461059  RH  090%=      5-min Rain = 0
KQU1 091032Z 30006KT M05/M06 A3031 RMK A01 T10451058  RH  090%=      5-min Rain = 0
KQU1 091033Z 30007KT M04/M06 A3031 RMK A01 T10441058  RH  090%=      5-min Rain = 0
KQU1 091034Z 30007KT M04/M06 A3031 RMK A01 T10441059  RH  089%=      5-min Rain = 0
KQU1 091035Z 30007KT M04/M06 A3031 RMK A01 T10441059  RH  089%=      5-min Rain = 0
KQU1 091036Z 30007KT M04/M06 A3031 RMK A01 T10431059  RH  089%=      5-min Rain = 0
KQU1 091037Z 30007KT M04/M06 A3031 RMK A01 T10431059  RH  089%=      5-min Rain = 0
KQU1 091038Z 30007KT M04/M06 A3031 RMK A01 T10431058  RH  089%=      5-min Rain = 0
KQU1 091039Z 30006KT M04/M06 A3031 RMK A01 T10421057  RH  089%=      5-min Rain = 0
KQU1 091040Z 30006KT M04/M06 A3031 RMK A01 T10411056  RH  089%=      5-min Rain = 0
KQU1 091041Z 30006KT M04/M06 A3031 RMK A01 T10401056  RH  089%=      5-min Rain = 0
KQU1 091042Z 30006KT M04/M06 A3031 RMK A01 T10401055  RH  089%=      5-min Rain = 0
KQU1 091043Z 30006KT M04/M06 A3031 RMK A01 T10401056  RH  089%=      5-min Rain = 0
KQU1 091044Z 30006KT M04/M06 A3031 RMK A01 T10401056  RH  088%=      5-min Rain = 0
KQU1 091045Z 30006KT M04/M06 A3031 RMK A01 T10411057  RH  088%=      5-min Rain = 0
KQU1 091046Z 30006KT M04/M06 A3031 RMK A01 T10411057  RH  089%=      5-min Rain = 0
KQU1 091047Z 30006KT M04/M06 A3031 RMK A01 T10421058  RH  089%=      5-min Rain = 0
KQU1 091048Z 30007KT M04/M06 A3031 RMK A01 T10431059  RH  089%=      5-min Rain = 0
KQU1 091049Z 30007KT M05/M06 A3031 RMK A01 T10451061  RH  089%=      5-min Rain = 0
KQU1 091050Z 30007KT M05/M06 A3031 RMK A01 T10461062  RH  089%=      5-min Rain = 0
KQU1 091051Z 30007KT M05/M06 A3031 RMK A01 T10471062  RH  089%=      5-min Rain = 0
KQU1 091052Z 30007KT M05/M06 A3031 RMK A01 T10471061  RH  090%=      5-min Rain = 0
KQU1 091053Z 30007KT M05/M06 A3032 RMK A01 T10471061  RH  090%=      5-min Rain = 0
KQU1 091054Z 29007KT M05/M06 A3032 RMK A01 T10471060  RH  090%=      5-min Rain = 0
KQU1 091055Z 29007KT M05/M06 A3032 RMK A01 T10471060  RH  090%=      5-min Rain = 0
KQU1 091056Z 29006KT M05/M06 A3032 RMK A01 T10481061  RH  090%=      5-min Rain = 0
KQU1 091057Z 29006KT M05/M06 A3032 RMK A01 T10481061  RH  091%=      5-min Rain = 0
KQU1 091058Z 30006KT M05/M06 A3032 RMK A01 T10491061  RH  091%=      5-min Rain = 0
KQU1 091059Z 30006KT M05/M06 A3032 RMK A01 T10491061  RH  091%=      5-min Rain = 0
KQU1 091100Z 30007KT M05/M06 A3032 RMK A01 T10491062  RH  091%=      5-min Rain = 0
KQU1 091101Z 30007KT M05/M06 A3032 RMK A01 T10491061  RH  092%=      5-min Rain = 0
KQU1 091102Z 30007KT M05/M06 A3032 RMK A01 T10481060  RH  092%=      5-min Rain = 0
KQU1 091103Z 30007KT M05/M06 A3032 RMK A01 T10481060  RH  092%=      5-min Rain = 0
KQU1 091104Z 30007KT M05/M06 A3032 RMK A01 T10481060  RH  091%=      5-min Rain = 0
KQU1 091105Z 30007KT M05/M06 A3032 RMK A01 T10481060  RH  091%=      5-min Rain = 0
KQU1 091106Z 30007KT M05/M06 A3032 RMK A01 T10481060  RH  091%=      5-min Rain = 0
KQU1 091107Z 31007KT M05/M06 A3032 RMK A01 T10481060  RH  091%=      5-min Rain = 0
KQU1 091108Z 31007KT M05/M06 A3032 RMK A01 T10471060  RH  091%=      5-min Rain = 0
KQU1 091109Z 31007KT M05/M06 A3032 RMK A01 T10471059  RH  091%=      5-min Rain = 0
KQU1 091110Z 31007KT M05/M06 A3032 RMK A01 T10461060  RH  091%=      5-min Rain = 0
KQU1 091111Z 31007KT M05/M06 A3032 RMK A01 T10461059  RH  091%=      5-min Rain = 0
KQU1 091112Z 31007KT M05/M06 A3032 RMK A01 T10461059  RH  090%=      5-min Rain = 0
KQU1 091113Z 31007KT M05/M06 A3032 RMK A01 T10461059  RH  090%=      5-min Rain = 0
KQU1 091114Z 31007KT M05/M06 A3032 RMK A01 T10461059  RH  090%=      5-min Rain = 0
KQU1 091115Z 31006KT M05/M06 A3032 RMK A01 T10451059  RH  090%=      5-min Rain = 0
KQU1 091116Z 31006KT M05/M06 A3032 RMK A01 T10451059  RH  090%=      5-min Rain = 0
KQU1 091117Z 31006KT M05/M06 A3032 RMK A01 T10451058  RH  090%=      5-min Rain = 0
KQU1 091118Z 31006KT M04/M06 A3032 RMK A01 T10441058  RH  090%=      5-min Rain = 0
KQU1 091119Z 31006KT M04/M06 A3032 RMK A01 T10441058  RH  090%=      5-min Rain = 0
KQU1 091120Z 31007KT M04/M06 A3032 RMK A01 T10441058  RH  090%=      5-min Rain = 0
KQU1 091121Z 31007KT M04/M06 A3032 RMK A01 T10441058  RH  090%=      5-min Rain = 0
KQU1 091122Z 31007KT M04/M06 A3032 RMK A01 T10441059  RH  090%=      5-min Rain = 0
KQU1 091123Z 31007KT M04/M06 A3032 RMK A01 T10441059  RH  090%=      5-min Rain = 0
KQU1 091124Z 31007KT M04/M06 A3032 RMK A01 T10441059  RH  090%=      5-min Rain = 0
KQU1 091125Z 31007KT M04/M06 A3032 RMK A01 T10441058  RH  090%=      5-min Rain = 0
KQU1 091126Z 31007KT M04/M06 A3032 RMK A01 T10441058  RH  090%=      5-min Rain = 0
KQU1 091127Z 31007KT M04/M06 A3032 RMK A01 T10441058  RH  090%=      5-min Rain = 0
KQU1 091128Z 31007KT M04/M06 A3032 RMK A01 T10441059  RH  090%=      5-min Rain = 0
KQU1 091129Z 31007KT M04/M06 A3032 RMK A01 T10441059  RH  090%=      5-min Rain = 0
KQU1 091130Z 31007KT M05/M06 A3032 RMK A01 T10451059  RH  089%=      5-min Rain = 0
KQU1 091131Z 31007KT M05/M06 A3032 RMK A01 T10451060  RH  090%=      5-min Rain = 0
KQU1 091132Z 31007KT M05/M06 A3032 RMK A01 T10451059  RH  090%=      5-min Rain = 0
KQU1 091133Z 31007KT M05/M06 A3032 RMK A01 T10451059  RH  090%=      5-min Rain = 0
KQU1 091134Z 31007KT M04/M06 A3032 RMK A01 T10441059  RH  090%=      5-min Rain = 0
KQU1 091135Z 31007KT M04/M06 A3032 RMK A01 T10441059  RH  090%=      5-min Rain = 0
KQU1 091136Z 31007KT M05/M06 A3032 RMK A01 T10451059  RH  090%=      5-min Rain = 0
KQU1 091137Z 31007KT M05/M06 A3032 RMK A01 T10451060  RH  089%=      5-min Rain = 0
KQU1 091138Z 31007KT M05/M06 A3032 RMK A01 T10451060  RH  089%=      5-min Rain = 0
KQU1 091139Z 31007KT M05/M06 A3032 RMK A01 T10461061  RH  089%=      5-min Rain = 0
KQU1 091140Z 31007KT M05/M06 A3032 RMK A01 T10471061  RH  089%=      5-min Rain = 0
KQU1 091141Z 31007KT M05/M06 A3032 RMK A01 T10471062  RH  090%=      5-min Rain = 0
KQU1 091142Z 31007KT M05/M06 A3032 RMK A01 T10481062  RH  090%=      5-min Rain = 0
KQU1 091143Z 31007KT M05/M06 A3032 RMK A01 T10481062  RH  090%=      5-min Rain = 0
KQU1 091144Z 31007KT M05/M06 A3032 RMK A01 T10481062  RH  090%=      5-min Rain = 0
KQU1 091145Z 30007KT M05/M06 A3032 RMK A01 T10481061  RH  090%=      5-min Rain = 0
KQU1 091146Z 30007KT M05/M06 A3032 RMK A01 T10481062  RH  090%=      5-min Rain = 0
KQU1 091147Z 30007KT M05/M06 A3032 RMK A01 T10491062  RH  090%=      5-min Rain = 0
KQU1 091148Z 30007KT M05/M06 A3032 RMK A01 T10491062  RH  090%=      5-min Rain = 0
KQU1 091149Z 30007KT M05/M06 A3032 RMK A01 T10491062  RH  091%=      5-min Rain = 0
KQU1 091150Z 30007KT M05/M06 A3032 RMK A01 T10491062  RH  091%=      5-min Rain = 0
KQU1 091151Z 30007KT M05/M06 A3032 RMK A01 T10491062  RH  091%=      5-min Rain = 0
KQU1 091152Z 30007KT M05/M06 A3032 RMK A01 T10491061  RH  091%=      5-min Rain = 0
KQU1 091153Z 30006KT M05/M06 A3032 RMK A01 T10491061  RH  091%=      5-min Rain = 0
KQU1 091154Z 30006KT M05/M06 A3032 RMK A01 T10481060  RH  091%=      5-min Rain = 0
KQU1 091155Z 30006KT M05/M06 A3032 RMK A01 T10481060  RH  091%=      5-min Rain = 0
KQU1 091156Z 30006KT M05/M06 A3032 RMK A01 T10481061  RH  091%=      5-min Rain = 0
KQU1 091157Z 30006KT M05/M06 A3032 RMK A01 T10491061  RH  091%=      5-min Rain = 0
KQU1 091158Z 30006KT M05/M06 A3032 RMK A01 T10501062  RH  091%=      5-min Rain = 0
KQU1 091159Z 30006KT M05/M06 A3032 RMK A01 T10501063  RH  091%=      5-min Rain = 0
KQU1 091200Z 30006KT M05/M06 A3032 RMK A01 T10511063  RH  091%=      5-min Rain = 0
KQU1 091201Z 30006KT M05/M06 A3032 RMK A01 T10511063  RH  091%=      5-min Rain = 0
KQU1 091202Z 30006KT M05/M06 A3032 RMK A01 T10511063  RH  091%=      5-min Rain = 0
KQU1 091203Z 30006KT M05/M06 A3032 RMK A01 T10521064  RH  091%=      5-min Rain = 0
KQU1 091204Z 30006KT M05/M06 A3032 RMK A01 T10521064  RH  091%=      5-min Rain = 0
KQU1 091205Z 30006KT M05/M06 A3032 RMK A01 T10521064  RH  092%=      5-min Rain = 0
KQU1 091206Z 30006KT M05/M06 A3033 RMK A01 T10521063  RH  092%=      5-min Rain = 0
KQU1 091207Z 30006KT M05/M06 A3033 RMK A01 T10521063  RH  092%=      5-min Rain = 0
KQU1 091208Z 30006KT M05/M06 A3033 RMK A01 T10521063  RH  092%=      5-min Rain = 0
KQU1 091209Z 30006KT M05/M06 A3033 RMK A01 T10521062  RH  092%=      5-min Rain = 0
KQU1 091210Z 30006KT M05/M06 A3033 RMK A01 T10521062  RH  092%=      5-min Rain = 0
KQU1 091211Z 30006KT M05/M06 A3033 RMK A01 T10521062  RH  092%=      5-min Rain = 0
KQU1 091212Z 29007KT M05/M06 A3033 RMK A01 T10521063  RH  092%=      5-min Rain = 0
KQU1 091213Z 29006KT M05/M06 A3033 RMK A01 T10531064  RH  092%=      5-min Rain = 0
KQU1 091214Z 29006KT M05/M06 A3033 RMK A01 T10531064  RH  092%=      5-min Rain = 0
KQU1 091215Z 29005KT M05/M06 A3033 RMK A01 T10531063  RH  092%=      5-min Rain = 0
KQU1 091216Z 29005KT M05/M06 A3033 RMK A01 T10531063  RH  092%=      5-min Rain = 0
KQU1 091217Z 28005KT M05/M06 A3033 RMK A01 T10531064  RH  092%=      5-min Rain = 0
KQU1 091218Z 28006KT M05/M06 A3033 RMK A01 T10531064  RH  092%=      5-min Rain = 0
KQU1 091219Z 29006KT M05/M07 A3033 RMK A01 T10541065  RH  092%=      5-min Rain = 0
KQU1 091220Z 29006KT M05/M07 A3033 RMK A01 T10541065  RH  092%=      5-min Rain = 0
KQU1 091221Z 29006KT M05/M07 A3033 RMK A01 T10541065  RH  092%=      5-min Rain = 0
KQU1 091222Z 29006KT M05/M07 A3033 RMK A01 T10541065  RH  092%=      5-min Rain = 0
KQU1 091223Z 29006KT M05/M06 A3033 RMK A01 T10541064  RH  093%=      5-min Rain = 0
KQU1 091224Z 29006KT M05/M06 A3033 RMK A01 T10541064  RH  093%=      5-min Rain = 0
KQU1 091225Z 29006KT M05/M06 A3033 RMK A01 T10541063  RH  093%=      5-min Rain = 0
KQU1 091226Z 29006KT M05/M06 A3033 RMK A01 T10531062  RH  093%=      5-min Rain = 0
KQU1 091227Z 28006KT M05/M06 A3034 RMK A01 T10531062  RH  093%=      5-min Rain = 0
KQU1 091228Z 28005KT M05/M06 A3034 RMK A01 T10521062  RH  093%=      5-min Rain = 0
KQU1 091229Z 28005KT M05/M06 A3034 RMK A01 T10521062  RH  093%=      5-min Rain = 0
KQU1 091230Z 28006KT M05/M06 A3034 RMK A01 T10511062  RH  093%=      5-min Rain = 0
KQU1 091231Z 28006KT M05/M06 A3034 RMK A01 T10521062  RH  092%=      5-min Rain = 0
KQU1 091232Z 28005KT M05/M06 A3034 RMK A01 T10521063  RH  092%=      5-min Rain = 0
KQU1 091233Z 28006KT M05/M06 A3034 RMK A01 T10521063  RH  092%=      5-min Rain = 0
KQU1 091234Z 28006KT M05/M06 A3034 RMK A01 T10521063  RH  092%=      5-min Rain = 0
KQU1 091235Z 29006KT M05/M06 A3034 RMK A01 T10521063  RH  092%=      5-min Rain = 0
KQU1 091236Z 29006KT M05/M06 A3034 RMK A01 T10521063  RH  092%=      5-min Rain = 0
KQU1 091237Z 29006KT M05/M06 A3034 RMK A01 T10521063  RH  092%=      5-min Rain = 0
KQU1 091238Z 29007KT M05/M06 A3034 RMK A01 T10521062  RH  092%=      5-min Rain = 0
KQU1 091239Z 29007KT M05/M06 A3034 RMK A01 T10511062  RH  092%=      5-min Rain = 0
KQU1 091240Z 29007KT M05/M06 A3034 RMK A01 T10511062  RH  092%=      5-min Rain = 0
KQU1 091241Z 29006KT M05/M06 A3034 RMK A01 T10511062  RH  092%=      5-min Rain = 0
KQU1 091242Z 29007KT M05/M06 A3034 RMK A01 T10511062  RH  092%=      5-min Rain = 0
KQU1 091243Z 29006KT M05/M06 A3034 RMK A01 T10511063  RH  092%=      5-min Rain = 0
KQU1 091244Z 29006KT M05/M06 A3034 RMK A01 T10511062  RH  092%=      5-min Rain = 0
KQU1 091245Z 29006KT M05/M06 A3034 RMK A01 T10511062  RH  092%=      5-min Rain = 0
KQU1 091246Z 29006KT M05/M06 A3034 RMK A01 T10511062  RH  092%=      5-min Rain = 0
KQU1 091247Z 29006KT M05/M06 A3034 RMK A01 T10511062  RH  092%=      5-min Rain = 0
KQU1 091248Z 29006KT M05/M06 A3034 RMK A01 T10511063  RH  092%=      5-min Rain = 0
KQU1 091249Z 28005KT M05/M06 A3034 RMK A01 T10511063  RH  091%=      5-min Rain = 0
KQU1 091250Z 28005KT M05/M06 A3034 RMK A01 T10511063  RH  091%=      5-min Rain = 0
KQU1 091251Z 28005KT M05/M06 A3034 RMK A01 T10511063  RH  091%=      5-min Rain = 0
KQU1 091252Z 28005KT M05/M06 A3034 RMK A01 T10511064  RH  091%=      5-min Rain = 0
KQU1 091253Z 28005KT M05/M06 A3034 RMK A01 T10511064  RH  091%=      5-min Rain = 0
KQU1 091254Z 28006KT M05/M06 A3034 RMK A01 T10511064  RH  091%=      5-min Rain = 0
KQU1 091255Z 29006KT M05/M06 A3034 RMK A01 T10511064  RH  091%=      5-min Rain = 0
KQU1 091256Z 29006KT M05/M06 A3034 RMK A01 T10511064  RH  091%=      5-min Rain = 0
KQU1 091257Z 29006KT M05/M06 A3034 RMK A01 T10511064  RH  091%=      5-min Rain = 0
KQU1 091258Z 29006KT M05/M06 A3034 RMK A01 T10521064  RH  091%=      5-min Rain = 0
KQU1 091259Z 29006KT M05/M06 A3034 RMK A01 T10521064  RH  091%=      5-min Rain = 0
KQU1 091300Z 29006KT M05/M06 A3034 RMK A01 T10521064  RH  091%=      5-min Rain = 0
KQU1 091301Z 29007KT M05/M06 A3034 RMK A01 T10521064  RH  091%=      5-min Rain = 0
KQU1 091302Z 29007KT M05/M06 A3034 RMK A01 T10521064  RH  091%=      5-min Rain = 0
KQU1 091303Z 29008KT M05/M06 A3034 RMK A01 T10521064  RH  091%=      5-min Rain = 0
KQU1 091304Z 29008KT M05/M06 A3034 RMK A01 T10521064  RH  091%=      5-min Rain = 0
KQU1 091305Z 29007KT M05/M07 A3034 RMK A01 T10521065  RH  091%=      5-min Rain = 0
KQU1 091306Z 29007KT M05/M07 A3034 RMK A01 T10531065  RH  091%=      5-min Rain = 0
KQU1 091307Z 29007KT M05/M07 A3034 RMK A01 T10531065  RH  091%=      5-min Rain = 0
KQU1 091308Z 29007KT M05/M07 A3035 RMK A01 T10531065  RH  091%=      5-min Rain = 0
KQU1 091309Z 29007KT M05/M07 A3035 RMK A01 T10531065  RH  091%=      5-min Rain = 0
KQU1 091310Z 29007KT M05/M07 A3035 RMK A01 T10531065  RH  091%=      5-min Rain = 0
KQU1 091311Z 29007KT M05/M07 A3035 RMK A01 T10531065  RH  091%=      5-min Rain = 0
KQU1 091312Z 29007KT M05/M07 A3035 RMK A01 T10531066  RH  091%=      5-min Rain = 0
KQU1 091313Z 29006KT M05/M07 A3035 RMK A01 T10541067  RH  091%=      5-min Rain = 0
KQU1 091314Z 29006KT M05/M07 A3035 RMK A01 T10541067  RH  091%=      5-min Rain = 0
KQU1 091315Z 28005KT M05/M07 A3035 RMK A01 T10541067  RH  091%=      5-min Rain = 0
KQU1 091316Z 28005KT M05/M07 A3035 RMK A01 T10541067  RH  091%=      5-min Rain = 0
KQU1 091317Z 28005KT M05/M07 A3035 RMK A01 T10541067  RH  091%=      5-min Rain = 0
KQU1 091318Z 28005KT M05/M07 A3035 RMK A01 T10541067  RH  091%=      5-min Rain = 0
KQU1 091319Z 28005KT M05/M07 A3035 RMK A01 T10541067  RH  091%=      5-min Rain = 0
KQU1 091320Z 29005KT M05/M07 A3035 RMK A01 T10541067  RH  091%=      5-min Rain = 0
KQU1 091321Z 29005KT M06/M07 A3035 RMK A01 T10551067  RH  091%=      5-min Rain = 0
KQU1 091322Z 29006KT M06/M07 A3035 RMK A01 T10551067  RH  091%=      5-min Rain = 0
KQU1 091323Z 29006KT M05/M07 A3035 RMK A01 T10541066  RH  091%=      5-min Rain = 0
KQU1 091324Z 30006KT M05/M07 A3035 RMK A01 T10541066  RH  091%=      5-min Rain = 0
KQU1 091325Z 30007KT M05/M07 A3035 RMK A01 T10541066  RH  091%=      5-min Rain = 0
KQU1 091326Z 30007KT M05/M07 A3035 RMK A01 T10541067  RH  091%=      5-min Rain = 0
KQU1 091327Z 30007KT M05/M07 A3035 RMK A01 T10541067  RH  091%=      5-min Rain = 0
KQU1 091328Z 30007KT M05/M07 A3035 RMK A01 T10541067  RH  091%=      5-min Rain = 0
KQU1 091329Z 30007KT M05/M07 A3035 RMK A01 T10541067  RH  091%=      5-min Rain = 0
KQU1 091330Z 30007KT M05/M07 A3035 RMK A01 T10541067  RH  091%=      5-min Rain = 0
KQU1 091331Z 30007KT M05/M07 A3036 RMK A01 T10541066  RH  091%=      5-min Rain = 0
KQU1 091332Z 30008KT M05/M07 A3036 RMK A01 T10541066  RH  091%=      5-min Rain = 0
KQU1 091333Z 30007KT M05/M07 A3036 RMK A01 T10541067  RH  091%=      5-min Rain = 0
KQU1 091334Z 30007KT M05/M07 A3036 RMK A01 T10541067  RH  091%=      5-min Rain = 0
KQU1 091335Z 30008KT M05/M07 A3036 RMK A01 T10541066  RH  091%=      5-min Rain = 0
KQU1 091336Z 30007KT M05/M07 A3036 RMK A01 T10541067  RH  091%=      5-min Rain = 0
KQU1 091337Z 29007KT M05/M07 A3036 RMK A01 T10541067  RH  091%=      5-min Rain = 0
KQU1 091338Z 29007KT M05/M07 A3036 RMK A01 T10541067  RH  091%=      5-min Rain = 0
KQU1 091339Z 29007KT M05/M07 A3036 RMK A01 T10541067  RH  091%=      5-min Rain = 0
KQU1 091340Z 29007KT M05/M07 A3036 RMK A01 T10541067  RH  091%=      5-min Rain = 0
KQU1 091341Z 29007KT M05/M07 A3036 RMK A01 T10541067  RH  091%=      5-min Rain = 0
KQU1 091342Z 29007KT M05/M07 A3036 RMK A01 T10541067  RH  091%=      5-min Rain = 0
KQU1 091343Z 29007KT M05/M07 A3036 RMK A01 T10541067  RH  091%=      5-min Rain = 0
KQU1 091344Z 29006KT M05/M07 A3036 RMK A01 T10541067  RH  091%=      5-min Rain = 0
KQU1 091345Z 29006KT M05/M07 A3036 RMK A01 T10541067  RH  091%=      5-min Rain = 0
KQU1 091346Z 29006KT M05/M07 A3036 RMK A01 T10541068  RH  091%=      5-min Rain = 0
KQU1 091347Z 28005KT M05/M07 A3036 RMK A01 T10541068  RH  091%=      5-min Rain = 0
KQU1 091348Z 28005KT M05/M07 A3036 RMK A01 T10541067  RH  091%=      5-min Rain = 0
KQU1 091349Z 29005KT M05/M07 A3036 RMK A01 T10541067  RH  091%=      5-min Rain = 0
KQU1 091350Z 29006KT M05/M07 A3036 RMK A01 T10541067  RH  091%=      5-min Rain = 0
KQU1 091351Z 29005KT M05/M07 A3036 RMK A01 T10541068  RH  091%=      5-min Rain = 0
KQU1 091352Z 29005KT M05/M07 A3036 RMK A01 T10541067  RH  091%=      5-min Rain = 0
KQU1 091353Z 28005KT M05/M07 A3036 RMK A01 T10541067  RH  091%=      5-min Rain = 0
KQU1 091354Z 28005KT M05/M07 A3036 RMK A01 T10541067  RH  091%=      5-min Rain = 0
KQU1 091355Z 28005KT M05/M07 A3036 RMK A01 T10531066  RH  091%=      5-min Rain = 0
KQU1 091356Z 28005KT M05/M07 A3036 RMK A01 T10521066  RH  091%=      5-min Rain = 0
KQU1 091357Z 28005KT M05/M07 A3036 RMK A01 T10521065  RH  090%=      5-min Rain = 0
KQU1 091358Z 28005KT M05/M07 A3036 RMK A01 T10521065  RH  090%=      5-min Rain = 0
KQU1 091359Z 28005KT M05/M07 A3036 RMK A01 T10511065  RH  090%=      5-min Rain = 0
KQU1 091400Z 28005KT M05/M07 A3036 RMK A01 T10511065  RH  090%=      5-min Rain = 0
KQU1 091401Z 28005KT M05/M07 A3036 RMK A01 T10511065  RH  090%=      5-min Rain = 0
KQU1 091402Z 28005KT M05/M07 A3037 RMK A01 T10511065  RH  090%=      5-min Rain = 0
KQU1 091403Z 29005KT M05/M06 A3037 RMK A01 T10511064  RH  090%=      5-min Rain = 0
KQU1 091404Z 29006KT M05/M06 A3037 RMK A01 T10511064  RH  091%=      5-min Rain = 0
KQU1 091405Z 29006KT M05/M06 A3037 RMK A01 T10511064  RH  091%=      5-min Rain = 0
KQU1 091406Z 29006KT M05/M06 A3037 RMK A01 T10501063  RH  091%=      5-min Rain = 0
KQU1 091407Z 29006KT M05/M06 A3037 RMK A01 T10491062  RH  091%=      5-min Rain = 0
KQU1 091408Z 29006KT M05/M06 A3037 RMK A01 T10491062  RH  090%=      5-min Rain = 0
KQU1 091409Z 29006KT M05/M06 A3037 RMK A01 T10481061  RH  090%=      5-min Rain = 0
KQU1 091410Z 29006KT M05/M06 A3037 RMK A01 T10471060  RH  090%=      5-min Rain = 0
KQU1 091411Z 29006KT M05/M06 A3037 RMK A01 T10461059  RH  090%=      5-min Rain = 0
KQU1 091412Z 30006KT M04/M06 A3037 RMK A01 T10441058  RH  090%=      5-min Rain = 0
KQU1 091413Z 30007KT M04/M06 A3037 RMK A01 T10431057  RH  090%=      5-min Rain = 0
KQU1 091414Z 30007KT M04/M06 A3037 RMK A01 T10421057  RH  089%=      5-min Rain = 0
KQU1 091415Z 30007KT M04/M06 A3037 RMK A01 T10411057  RH  089%=      5-min Rain = 0
KQU1 091416Z 30007KT M04/M06 A3037 RMK A01 T10401057  RH  089%=      5-min Rain = 0
KQU1 091417Z 30007KT M04/M06 A3037 RMK A01 T10401056  RH  088%=      5-min Rain = 0
KQU1 091418Z 30007KT M04/M06 A3037 RMK A01 T10391056  RH  088%=      5-min Rain = 0
KQU1 091419Z 30007KT M04/M06 A3037 RMK A01 T10381055  RH  088%=      5-min Rain = 0
KQU1 091420Z 30007KT M04/M05 A3037 RMK A01 T10371053  RH  089%=      5-min Rain = 0
KQU1 091421Z 30007KT M04/M05 A3037 RMK A01 T10361052  RH  088%=      5-min Rain = 0
KQU1 091422Z 30007KT M03/M05 A3037 RMK A01 T10341052  RH  088%=      5-min Rain = 0
KQU1 091423Z 30007KT M03/M05 A3037 RMK A01 T10331052  RH  087%=      5-min Rain = 0
KQU1 091424Z 30007KT M03/M05 A3037 RMK A01 T10321052  RH  086%=      5-min Rain = 0
KQU1 091425Z 30007KT M03/M05 A3037 RMK A01 T10311052  RH  086%=      5-min Rain = 0
KQU1 091426Z 30007KT M03/M05 A3037 RMK A01 T10301052  RH  085%=      5-min Rain = 0
KQU1 091427Z 30007KT M03/M05 A3037 RMK A01 T10291052  RH  084%=      5-min Rain = 0
KQU1 091428Z 30007KT M03/M05 A3037 RMK A01 T10281052  RH  084%=      5-min Rain = 0
KQU1 091429Z 30007KT M03/M05 A3037 RMK A01 T10281053  RH  083%=      5-min Rain = 0
KQU1 091430Z 30008KT M03/M05 A3037 RMK A01 T10281053  RH  082%=      5-min Rain = 0
KQU1 091431Z 30008KT M03/M05 A3037 RMK A01 T10271054  RH  082%=      5-min Rain = 0
KQU1 091432Z 30007KT M03/M05 A3037 RMK A01 T10271054  RH  082%=      5-min Rain = 0
KQU1 091433Z 30007KT M03/M05 A3037 RMK A01 T10271054  RH  082%=      5-min Rain = 0
KQU1 091434Z 30007KT M03/M06 A3037 RMK A01 T10271055  RH  082%=      5-min Rain = 0
KQU1 091435Z 30007KT M03/M06 A3037 RMK A01 T10271055  RH  081%=      5-min Rain = 0
KQU1 091436Z 30007KT M03/M06 A3037 RMK A01 T10271055  RH  081%=      5-min Rain = 0
KQU1 091437Z 30007KT M03/M06 A3037 RMK A01 T10271055  RH  081%=      5-min Rain = 0
KQU1 091438Z 30007KT M03/M06 A3037 RMK A01 T10271055  RH  081%=      5-min Rain = 0
KQU1 091439Z 30007KT M03/M06 A3037 RMK A01 T10271056  RH  081%=      5-min Rain = 0
KQU1 091440Z 30007KT M03/M06 A3037 RMK A01 T10271056  RH  081%=      5-min Rain = 0
KQU1 091441Z 30007KT M03/M06 A3037 RMK A01 T10271055  RH  081%=      5-min Rain = 0
KQU1 091442Z 30007KT M03/M06 A3037 RMK A01 T10261055  RH  081%=      5-min Rain = 0
KQU1 091443Z 30006KT M03/M06 A3037 RMK A01 T10261055  RH  081%=      5-min Rain = 0
KQU1 091444Z 30007KT M03/M05 A3037 RMK A01 T10261054  RH  081%=      5-min Rain = 0
KQU1 091445Z 30007KT M03/M05 A3037 RMK A01 T10251053  RH  081%=      5-min Rain = 0
KQU1 091446Z 30006KT M03/M05 A3037 RMK A01 T10251052  RH  081%=      5-min Rain = 0
KQU1 091447Z 30007KT M02/M05 A3037 RMK A01 T10241052  RH  081%=      5-min Rain = 0
KQU1 091448Z 30007KT M02/M05 A3037 RMK A01 T10241051  RH  081%=      5-min Rain = 0
KQU1 091449Z 30007KT M02/M05 A3037 RMK A01 T10231051  RH  082%=      5-min Rain = 0
KQU1 091450Z 30007KT M02/M05 A3037 RMK A01 T10231050  RH  082%=      5-min Rain = 0
KQU1 091451Z 30007KT M02/M05 A3038 RMK A01 T10221048  RH  082%=      5-min Rain = 0
KQU1 091452Z 30007KT M02/M05 A3038 RMK A01 T10211047  RH  082%=      5-min Rain = 0
KQU1 091453Z 30007KT M02/M05 A3038 RMK A01 T10211047  RH  082%=      5-min Rain = 0
KQU1 091454Z 30007KT M02/M05 A3038 RMK A01 T10201048  RH  081%=      5-min Rain = 0
KQU1 091455Z 30007KT M02/M05 A3038 RMK A01 T10181048  RH  080%=      5-min Rain = 0
KQU1 091456Z 30007KT M02/M05 A3038 RMK A01 T10171048  RH  079%=      5-min Rain = 0
KQU1 091457Z 30006KT M02/M05 A3038 RMK A01 T10161049  RH  078%=      5-min Rain = 0
KQU1 091458Z 30006KT M02/M05 A3038 RMK A01 T10151048  RH  078%=      5-min Rain = 0
KQU1 091459Z 30006KT M01/M05 A3038 RMK A01 T10141048  RH  077%=      5-min Rain = 0
KQU1 091500Z 30006KT M01/M05 A3038 RMK A01 T10141050  RH  077%=      5-min Rain = 0
KQU1 091501Z 31006KT M01/M05 A3038 RMK A01 T10141050  RH  077%=      5-min Rain = 0
KQU1 091502Z 31006KT M01/M05 A3038 RMK A01 T10141051  RH  076%=      5-min Rain = 0
KQU1 091503Z 31006KT M01/M05 A3038 RMK A01 T10141050  RH  076%=      5-min Rain = 0
KQU1 091504Z 31006KT M01/M05 A3038 RMK A01 T10131049  RH  076%=      5-min Rain = 0
KQU1 091505Z 31007KT M01/M05 A3038 RMK A01 T10121050  RH  076%=      5-min Rain = 0
KQU1 091506Z 30007KT M01/M05 A3038 RMK A01 T10121050  RH  075%=      5-min Rain = 0
KQU1 091507Z 31007KT M01/M05 A3038 RMK A01 T10111050  RH  075%=      5-min Rain = 0
KQU1 091508Z 30007KT M01/M05 A3038 RMK A01 T10111049  RH  075%=      5-min Rain = 0
KQU1 091509Z 31007KT M01/M05 A3038 RMK A01 T10101048  RH  076%=      5-min Rain = 0
KQU1 091510Z 30007KT M01/M05 A3039 RMK A01 T10101048  RH  075%=      5-min Rain = 0
KQU1 091511Z 30007KT M01/M05 A3039 RMK A01 T10101049  RH  075%=      5-min Rain = 0
KQU1 091512Z 30006KT M01/M05 A3039 RMK A01 T10111048  RH  076%=      5-min Rain = 0
KQU1 091513Z 31006KT M01/M05 A3039 RMK A01 T10111049  RH  076%=      5-min Rain = 0
KQU1 091514Z 31006KT M01/M05 A3039 RMK A01 T10111048  RH  076%=      5-min Rain = 0
KQU1 091515Z 31006KT M01/M05 A3039 RMK A01 T10111048  RH  076%=      5-min Rain = 0
KQU1 091516Z 31006KT M01/M05 A3039 RMK A01 T10101048  RH  075%=      5-min Rain = 0
KQU1 091517Z 31006KT M01/M05 A3039 RMK A01 T10081047  RH  075%=      5-min Rain = 0
KQU1 091518Z 31006KT M01/M05 A3039 RMK A01 T10071047  RH  075%=      5-min Rain = 0
KQU1 091519Z 31005KT M01/M05 A3039 RMK A01 T10071047  RH  074%=      5-min Rain = 0
KQU1 091520Z 30006KT M01/M05 A3039 RMK A01 T10061045  RH  075%=      5-min Rain = 0
KQU1 091521Z 31006KT M01/M05 A3039 RMK A01 T10051046  RH  074%=      5-min Rain = 0
KQU1 091522Z 31005KT M00/M05 A3039 RMK A01 T10041045  RH  074%=      5-min Rain = 0
KQU1 091523Z 31005KT M00/M05 A3039 RMK A01 T10041046  RH  073%=      5-min Rain = 0
KQU1 091524Z 31005KT M00/M04 A3039 RMK A01 T10031044  RH  073%=      5-min Rain = 0
KQU1 091525Z 31005KT M00/M04 A3039 RMK A01 T10021044  RH  073%=      5-min Rain = 0
KQU1 091526Z 31005KT M00/M04 A3039 RMK A01 T10011043  RH  073%=      5-min Rain = 0
KQU1 091527Z 31005KT 00/04 A3039 RMK A01 T00000-43  RH  073%=      5-min Rain = 0
KQU1 091528Z 31004KT 00/M04 A3039 RMK A01 T00011043  RH  072%=      5-min Rain = 0
KQU1 091529Z 31004KT 00/M04 A3039 RMK A01 T00021044  RH  071%=      5-min Rain = 0
KQU1 091530Z 31004KT 00/M04 A3039 RMK A01 T00031043  RH  071%=      5-min Rain = 0
KQU1 091531Z 31004KT 00/M04 A3039 RMK A01 T00041043  RH  071%=      5-min Rain = 0
KQU1 091532Z 31004KT 01/M04 A3039 RMK A01 T00051042  RH  071%=      5-min Rain = 0
KQU1 091533Z 32004KT 01/M04 A3039 RMK A01 T00061044  RH  069%=      5-min Rain = 0
KQU1 091534Z 32004KT 01/M04 A3039 RMK A01 T00071043  RH  069%=      5-min Rain = 0
KQU1 091535Z 32003KT 01/M04 A3039 RMK A01 T00081040  RH  070%=      5-min Rain = 0
KQU1 091536Z 32003KT 01/M04 A3039 RMK A01 T00101040  RH  069%=      5-min Rain = 0
KQU1 091537Z 32003KT 01/M04 A3039 RMK A01 T00111043  RH  067%=      5-min Rain = 0
KQU1 091538Z 32003KT 01/M04 A3039 RMK A01 T00121043  RH  067%=      5-min Rain = 0
KQU1 091539Z 32002KT 01/M04 A304 RMK A01 T00131043  RH  067%=      5-min Rain = 0
KQU1 091540Z 32002KT 01/M04 A304 RMK A01 T00141041  RH  067%=      5-min Rain = 0
KQU1 091541Z 32002KT 02/M04 A304 RMK A01 T00151043  RH  065%=      5-min Rain = 0
KQU1 091542Z 32002KT 02/M04 A304 RMK A01 T00171040  RH  066%=      5-min Rain = 0
KQU1 091543Z 32002KT 02/M04 A304 RMK A01 T00181039  RH  066%=      5-min Rain = 0
KQU1 091544Z 35001KT 02/M04 A304 RMK A01 T00191042  RH  064%=      5-min Rain = 0
KQU1 091545Z 34001KT 02/M04 A304 RMK A01 T00201041  RH  064%=      5-min Rain = 0
KQU1 091546Z 34002KT 02/M04 A304 RMK A01 T00211043  RH  063%=      5-min Rain = 0
KQU1 091547Z 35003KT 02/M05 A304 RMK A01 T00211052  RH  058%=      5-min Rain = 0
KQU1 091548Z 36004KT 02/M06 A304 RMK A01 T00211056  RH  056%=      5-min Rain = 0
KQU1 091549Z 35004KT 02/M06 A304 RMK A01 T00221060  RH  055%=      5-min Rain = 0
KQU1 091550Z 35004KT 02/M06 A304 RMK A01 T00221064  RH  053%=      5-min Rain = 0
KQU1 091551Z 35005KT 02/M07 A304 RMK A01 T00221067  RH  052%=      5-min Rain = 0
KQU1 091552Z 35005KT 02/M07 A304 RMK A01 T00221070  RH  051%=      5-min Rain = 0
KQU1 091553Z 35004KT 02/M07 A304 RMK A01 T00221071  RH  050%=      5-min Rain = 0
KQU1 091554Z 34004KT 02/M07 A304 RMK A01 T00231072  RH  050%=      5-min Rain = 0
KQU1 091555Z 35005KT 02/M07 A304 RMK A01 T00231070  RH  050%=      5-min Rain = 0
KQU1 091556Z 35004KT 02/M07 A304 RMK A01 T00231072  RH  049%=      5-min Rain = 0
KQU1 091557Z 35004KT 02/M07 A304 RMK A01 T00231071  RH  050%=      5-min Rain = 0
KQU1 091558Z 35003KT 02/M07 A304 RMK A01 T00241069  RH  050%=      5-min Rain = 0
KQU1 091559Z 34004KT 03/M07 A304 RMK A01 T00251070  RH  050%=      5-min Rain = 0.01
KQU1 091600Z 35004KT 03/M07 A304 RMK A01 T00251072  RH  049%=      5-min Rain = 0
KQU1 091601Z 35004KT 03/M07 A304 RMK A01 T00251074  RH  048%=      5-min Rain = 0
KQU1 091602Z 35004KT 03/M07 A304 RMK A01 T00251074  RH  048%=      5-min Rain = 0
KQU1 091603Z 36003KT 03/M07 A304 RMK A01 T00261071  RH  049%=      5-min Rain = 0
KQU1 091604Z 01004KT 03/M07 A304 RMK A01 T00261072  RH  048%=      5-min Rain = 0
KQU1 091605Z 00004KT 03/M07 A304 RMK A01 T00261072  RH  048%=      5-min Rain = 0
KQU1 091606Z 34004KT 03/M07 A304 RMK A01 T00261071  RH  049%=      5-min Rain = 0
KQU1 091607Z 34004KT 03/M08 A304 RMK A01 T00261076  RH  047%=      5-min Rain = 0
KQU1 091608Z 33004KT 03/M08 A304 RMK A01 T00261079  RH  046%=      5-min Rain = 0
KQU1 091609Z 32005KT 03/M08 A304 RMK A01 T00251078  RH  046%=      5-min Rain = 0
KQU1 091610Z 33004KT 03/M08 A3041 RMK A01 T00251077  RH  047%=      5-min Rain = 0
KQU1 091611Z 35003KT 03/M08 A3041 RMK A01 T00251078  RH  047%=      5-min Rain = 0
KQU1 091612Z 35003KT 03/M08 A3041 RMK A01 T00261075  RH  047%=      5-min Rain = 0
KQU1 091613Z 34003KT 03/M08 A3041 RMK A01 T00271075  RH  047%=      5-min Rain = 0
KQU1 091614Z 00003KT 03/M07 A3041 RMK A01 T00271074  RH  047%=      5-min Rain = 0
KQU1 091615Z 00001KT 03/M07 A3041 RMK A01 T00281071  RH  048%=      5-min Rain = 0
KQU1 091616Z 01003KT 03/M07 A3041 RMK A01 T00291068  RH  049%=      5-min Rain = 0
KQU1 091617Z 35002KT 03/M07 A3041 RMK A01 T00291068  RH  049%=      5-min Rain = 0
KQU1 091618Z 00002KT 03/M06 A304 RMK A01 T00301064  RH  050%=      5-min Rain = 0
KQU1 091619Z 35001KT 03/M06 A304 RMK A01 T00301061  RH  051%=      5-min Rain = 0
KQU1 091620Z 01002KT 03/M06 A304 RMK A01 T00321061  RH  050%=      5-min Rain = 0
KQU1 091621Z 36002KT 03/M06 A304 RMK A01 T00331061  RH  050%=      5-min Rain = 0
KQU1 091622Z 02001KT 03/M06 A304 RMK A01 T00331063  RH  049%=      5-min Rain = 0
KQU1 091623Z 03002KT 03/M06 A304 RMK A01 T00341063  RH  049%=      5-min Rain = 0
KQU1 091624Z 02003KT 04/M07 A3041 RMK A01 T00351067  RH  047%=      5-min Rain = 0
KQU1 091625Z 02005KT 04/M07 A3041 RMK A01 T00351069  RH  047%=      5-min Rain = 0
KQU1 091626Z 02005KT 03/M07 A3041 RMK A01 T00331071  RH  046%=      5-min Rain = 0
KQU1 091627Z 01004KT 03/M07 A3041 RMK A01 T00321071  RH  047%=      5-min Rain = 0
KQU1 091628Z 02003KT 03/M07 A3041 RMK A01 T00321066  RH  049%=      5-min Rain = 0
KQU1 091629Z 03003KT 03/M06 A3041 RMK A01 T00321063  RH  050%=      5-min Rain = 0
KQU1 091630Z 03004KT 03/M07 A3041 RMK A01 T00321067  RH  048%=      5-min Rain = 0
KQU1 091631Z 02004KT 03/M07 A3041 RMK A01 T00321069  RH  047%=      5-min Rain = 0
KQU1 091632Z 01004KT 03/M07 A3041 RMK A01 T00311071  RH  047%=      5-min Rain = 0
KQU1 091633Z 36003KT 03/M07 A3041 RMK A01 T00301067  RH  049%=      5-min Rain = 0
KQU1 091634Z 35004KT 03/M07 A3041 RMK A01 T00301068  RH  048%=      5-min Rain = 0
KQU1 091635Z 35004KT 03/M07 A3041 RMK A01 T00291070  RH  048%=      5-min Rain = 0
KQU1 091636Z 33003KT 03/M07 A3041 RMK A01 T00291070  RH  048%=      5-min Rain = 0
KQU1 091637Z 36002KT 03/M07 A3041 RMK A01 T00291065  RH  050%=      5-min Rain = 0
KQU1 091638Z 02002KT 03/M06 A3041 RMK A01 T00301062  RH  051%=      5-min Rain = 0
KQU1 091639Z 02003KT 03/M07 A304 RMK A01 T00311065  RH  049%=      5-min Rain = 0.01
KQU1 091640Z 01002KT 03/M07 A304 RMK A01 T00311065  RH  049%=      5-min Rain = 0.01
KQU1 091641Z 01000KT 03/M06 A304 RMK A01 T00321057  RH  052%=      5-min Rain = 0
KQU1 091642Z 02004KT 03/M06 A304 RMK A01 T00331059  RH  051%=      5-min Rain = 0
KQU1 091643Z 02004KT 03/M07 A304 RMK A01 T00331065  RH  049%=      5-min Rain = 0
KQU1 091644Z 03003KT 03/M06 A304 RMK A01 T00331060  RH  051%=      5-min Rain = 0
KQU1 091645Z 02004KT 03/M06 A304 RMK A01 T00331060  RH  051%=      5-min Rain = 0
KQU1 091646Z 35002KT 03/M06 A304 RMK A01 T00331059  RH  051%=      5-min Rain = 0
KQU1 091647Z 35002KT 03/M06 A304 RMK A01 T00331061  RH  050%=      5-min Rain = 0
KQU1 091648Z 00004KT 03/M06 A304 RMK A01 T00331061  RH  050%=      5-min Rain = 0
KQU1 091649Z 01004KT 03/M06 A304 RMK A01 T00321059  RH  051%=      5-min Rain = 0
KQU1 091650Z 02003KT 03/M06 A304 RMK A01 T00321059  RH  051%=      5-min Rain = 0
KQU1 091651Z 01002KT 03/M06 A304 RMK A01 T00321059  RH  051%=      5-min Rain = 0
KQU1 091652Z 01003KT 03/M06 A304 RMK A01 T00331060  RH  051%=      5-min Rain = 0.01
KQU1 091653Z 02004KT 03/M06 A304 RMK A01 T00331061  RH  050%=      5-min Rain = 0
KQU1 091654Z 02004KT 03/M07 A304 RMK A01 T00331066  RH  048%=      5-min Rain = 0
KQU1 091655Z 02005KT 03/M07 A304 RMK A01 T00331065  RH  049%=      5-min Rain = 0
KQU1 091656Z 02005KT 03/M07 A304 RMK A01 T00331066  RH  048%=      5-min Rain = 0
KQU1 091657Z 01003KT 03/M07 A304 RMK A01 T00331067  RH  048%=      5-min Rain = 0
KQU1 091658Z 02002KT 03/M07 A304 RMK A01 T00321068  RH  048%=      5-min Rain = 0
KQU1 091659Z 02004KT 03/M07 A304 RMK A01 T00331066  RH  048%=      5-min Rain = 0
KQU1 091700Z 02004KT 03/M07 A304 RMK A01 T00331066  RH  048%=      5-min Rain = 0
KQU1 091701Z 02002KT 03/M06 A304 RMK A01 T00341063  RH  049%=      5-min Rain = 0
KQU1 091702Z 04003KT 04/M07 A304 RMK A01 T00351066  RH  048%=      5-min Rain = 0
KQU1 091703Z 02004KT 04/M06 A304 RMK A01 T00361063  RH  049%=      5-min Rain = 0
KQU1 091704Z 01003KT 04/M06 A304 RMK A01 T00361062  RH  049%=      5-min Rain = 0
KQU1 091705Z 35003KT 04/M06 A304 RMK A01 T00361063  RH  048%=      5-min Rain = 0
KQU1 091706Z 01001KT 04/M06 A304 RMK A01 T00361060  RH  049%=      5-min Rain = 0.01
KQU1 091707Z 02003KT 04/M06 A304 RMK A01 T00381058  RH  050%=      5-min Rain = 0
KQU1 091708Z 35004KT 04/M06 A304 RMK A01 T00391056  RH  050%=      5-min Rain = 0
KQU1 091709Z 35006KT 04/M06 A304 RMK A01 T00391061  RH  048%=      5-min Rain = 0
KQU1 091710Z 35004KT 04/M06 A304 RMK A01 T00381064  RH  047%=      5-min Rain = 0
KQU1 091711Z 35004KT 04/M06 A304 RMK A01 T00381064  RH  047%=      5-min Rain = 0
KQU1 091712Z 35005KT 04/M06 A304 RMK A01 T00381064  RH  047%=      5-min Rain = 0
KQU1 091713Z 36004KT 04/M07 A304 RMK A01 T00381069  RH  046%=      5-min Rain = 0
KQU1 091714Z 00003KT 04/M07 A304 RMK A01 T00371069  RH  046%=      5-min Rain = 0
KQU1 091715Z 34005KT 04/M07 A304 RMK A01 T00381068  RH  046%=      5-min Rain = 0
KQU1 091716Z 01004KT 04/M07 A304 RMK A01 T00371067  RH  046%=      5-min Rain = 0
KQU1 091717Z 02005KT 04/M07 A304 RMK A01 T00381065  RH  047%=      5-min Rain = 0
KQU1 091718Z 02004KT 04/M07 A304 RMK A01 T00391066  RH  046%=      5-min Rain = 0
KQU1 091719Z 36004KT 04/M06 A304 RMK A01 T00391061  RH  048%=      5-min Rain = 0
KQU1 091720Z 34006KT 04/M06 A304 RMK A01 T00391062  RH  048%=      5-min Rain = 0
KQU1 091721Z 34005KT 04/M06 A304 RMK A01 T00391061  RH  048%=      5-min Rain = 0.01
KQU1 091722Z 34005KT 04/M06 A304 RMK A01 T00401058  RH  049%=      5-min Rain = 0
KQU1 091723Z 00004KT 04/M06 A304 RMK A01 T00401063  RH  047%=      5-min Rain = 0
KQU1 091724Z 00001KT 04/M06 A304 RMK A01 T00411056  RH  049%=      5-min Rain = 0
KQU1 091725Z 03004KT 04/M06 A304 RMK A01 T00431056  RH  049%=      5-min Rain = 0
KQU1 091726Z 02004KT 04/M06 A304 RMK A01 T00441056  RH  048%=      5-min Rain = 0
KQU1 091727Z 02004KT 04/M06 A3039 RMK A01 T00441055  RH  048%=      5-min Rain = 0
KQU1 091728Z 03004KT 04/M06 A3039 RMK A01 T00441059  RH  047%=      5-min Rain = 0
KQU1 091729Z 02004KT 04/M06 A3039 RMK A01 T00441056  RH  048%=      5-min Rain = 0
KQU1 091730Z 35002KT 05/M05 A3039 RMK A01 T00451052  RH  049%=      5-min Rain = 0
KQU1 091731Z 00003KT 05/M06 A3039 RMK A01 T00451055  RH  048%=      5-min Rain = 0
KQU1 091732Z 01003KT 05/M05 A3039 RMK A01 T00451053  RH  049%=      5-min Rain = 0
KQU1 091733Z 35005KT 05/M06 A3039 RMK A01 T00451059  RH  047%=      5-min Rain = 0
KQU1 091734Z 01004KT 04/M06 A3039 RMK A01 T00441062  RH  046%=      5-min Rain = 0
KQU1 091735Z 01004KT 04/M06 A3039 RMK A01 T00431061  RH  047%=      5-min Rain = 0
KQU1 091736Z 00003KT 04/M06 A3039 RMK A01 T00431063  RH  046%=      5-min Rain = 0
KQU1 091737Z 01003KT 04/M06 A3039 RMK A01 T00431061  RH  047%=      5-min Rain = 0
KQU1 091738Z 01003KT 04/M06 A3039 RMK A01 T00431058  RH  048%=      5-min Rain = 0
KQU1 091739Z 03004KT 04/M06 A3039 RMK A01 T00441055  RH  048%=      5-min Rain = 0
KQU1 091740Z 04005KT 04/M06 A3039 RMK A01 T00441056  RH  048%=      5-min Rain = 0
KQU1 091741Z 03004KT 04/M06 A3039 RMK A01 T00441056  RH  048%=      5-min Rain = 0
KQU1 091742Z 02005KT 04/M05 A3039 RMK A01 T00441053  RH  049%=      5-min Rain = 0
KQU1 091743Z 03007KT 04/M05 A3039 RMK A01 T00441052  RH  050%=      5-min Rain = 0
KQU1 091744Z 01005KT 04/M05 A3039 RMK A01 T00441051  RH  050%=      5-min Rain = 0
KQU1 091745Z 00006KT 04/M05 A3039 RMK A01 T00441050  RH  051%=      5-min Rain = 0
KQU1 091746Z 02005KT 04/M05 A3039 RMK A01 T00441051  RH  050%=      5-min Rain = 0
KQU1 091747Z 01005KT 04/M05 A3039 RMK A01 T00441049  RH  051%=      5-min Rain = 0
KQU1 091748Z 02006KT 05/M05 A3039 RMK A01 T00451049  RH  051%=      5-min Rain = 0
KQU1 091749Z 02006KT 05/M05 A3039 RMK A01 T00451048  RH  051%=      5-min Rain = 0
KQU1 091750Z 02004KT 05/M05 A3039 RMK A01 T00451049  RH  050%=      5-min Rain = 0
KQU1 091751Z 03004KT 05/M05 A3039 RMK A01 T00451048  RH  051%=      5-min Rain = 0
KQU1 091752Z 03002KT 05/M04 A3039 RMK A01 T00461044  RH  052%=      5-min Rain = 0
KQU1 091753Z 04002KT 05/M04 A3039 RMK A01 T00471040  RH  053%=      5-min Rain = 0
KQU1 091754Z 03003KT 05/M04 A3039 RMK A01 T00481042  RH  052%=      5-min Rain = 0
KQU1 091755Z 03005KT 05/M05 A3039 RMK A01 T00491045  RH  051%=      5-min Rain = 0
KQU1 091756Z 04006KT 05/M05 A3039 RMK A01 T00481049  RH  049%=      5-min Rain = 0
KQU1 091757Z 04006KT 05/M05 A3039 RMK A01 T00471049  RH  050%=      5-min Rain = 0
KQU1 091758Z 02005KT 05/M05 A3039 RMK A01 T00461051  RH  049%=      5-min Rain = 0
KQU1 091759Z 01004KT 05/M05 A3039 RMK A01 T00461048  RH  051%=      5-min Rain = 0
KQU1 091800Z 02005KT 05/M05 A3039 RMK A01 T00461046  RH  051%=      5-min Rain = 0
KQU1 091801Z 00004KT 05/M05 A3039 RMK A01 T00461047  RH  051%=      5-min Rain = 0
KQU1 091802Z 34004KT 05/M05 A3039 RMK A01 T00461048  RH  051%=      5-min Rain = 0
KQU1 091803Z 33004KT 05/M05 A3039 RMK A01 T00461046  RH  051%=      5-min Rain = 0
KQU1 091804Z 33002KT 05/M05 A3039 RMK A01 T00461051  RH  049%=      5-min Rain = 0
KQU1 091805Z 35005KT 05/M05 A3039 RMK A01 T00461051  RH  049%=      5-min Rain = 0
KQU1 091806Z 02006KT 05/M05 A3038 RMK A01 T00461048  RH  051%=      5-min Rain = 0
KQU1 091807Z 04005KT 05/M05 A3038 RMK A01 T00471047  RH  051%=      5-min Rain = 0
KQU1 091808Z 01002KT 05/M04 A3038 RMK A01 T00471044  RH  052%=      5-min Rain = 0
KQU1 091809Z 00004KT 05/M04 A3038 RMK A01 T00481044  RH  051%=      5-min Rain = 0
KQU1 091810Z 36004KT 05/M05 A3038 RMK A01 T00481047  RH  050%=      5-min Rain = 0
KQU1 091811Z 00003KT 05/M05 A3038 RMK A01 T00481051  RH  049%=      5-min Rain = 0
KQU1 091812Z 02004KT 05/M05 A3038 RMK A01 T00491049  RH  049%=      5-min Rain = 0
KQU1 091813Z 34004KT 05/M05 A3038 RMK A01 T00491047  RH  050%=      5-min Rain = 0
KQU1 091814Z 33004KT 05/M05 A3038 RMK A01 T00491046  RH  050%=      5-min Rain = 0
KQU1 091815Z 34005KT 05/M05 A3038 RMK A01 T00491045  RH  050%=      5-min Rain = 0
KQU1 091816Z 02005KT 05/M05 A3038 RMK A01 T00491049  RH  049%=      5-min Rain = 0
KQU1 091817Z 02006KT 05/M05 A3038 RMK A01 T00491048  RH  049%=      5-min Rain = 0
KQU1 091818Z 03005KT 05/M05 A3038 RMK A01 T00491050  RH  049%=      5-min Rain = 0
KQU1 091819Z 02004KT 05/M05 A3038 RMK A01 T00491046  RH  050%=      5-min Rain = 0
KQU1 091820Z 05002KT 05/M05 A3038 RMK A01 T00491048  RH  049%=      5-min Rain = 0
KQU1 091821Z 04001KT 05/M05 A3038 RMK A01 T00511045  RH  050%=      5-min Rain = 0
KQU1 091822Z 09001KT 05/M04 A3038 RMK A01 T00521044  RH  050%=      5-min Rain = 0
KQU1 091823Z 09002KT 05/M04 A3038 RMK A01 T00541043  RH  049%=      5-min Rain = 0
KQU1 091824Z 08001KT 06/M05 A3037 RMK A01 T00551046  RH  048%=      5-min Rain = 0
KQU1 091825Z 09002KT 06/M05 A3037 RMK A01 T00561046  RH  048%=      5-min Rain = 0
KQU1 091826Z 09002KT 06/M04 A3037 RMK A01 T00561043  RH  049%=      5-min Rain = 0
KQU1 091827Z 06001KT 06/M04 A3037 RMK A01 T00561043  RH  049%=      5-min Rain = 0
KQU1 091828Z 35002KT 06/M05 A3037 RMK A01 T00561048  RH  047%=      5-min Rain = 0
KQU1 091829Z 35003KT 05/M05 A3037 RMK A01 T00541049  RH  047%=      5-min Rain = 0
KQU1 091830Z 00003KT 05/M05 A3037 RMK A01 T00531053  RH  046%=      5-min Rain = 0
KQU1 091831Z 03003KT 05/M05 A3037 RMK A01 T00531048  RH  048%=      5-min Rain = 0
KQU1 091832Z 02001KT 05/M05 A3037 RMK A01 T00541049  RH  047%=      5-min Rain = 0
KQU1 091833Z 23000KT 06/M05 A3037 RMK A01 T00551050  RH  047%=      5-min Rain = 0
KQU1 091834Z 35001KT 06/M05 A3037 RMK A01 T00551048  RH  047%=      5-min Rain = 0
KQU1 091835Z 02002KT 06/M04 A3037 RMK A01 T00561044  RH  048%=      5-min Rain = 0
KQU1 091836Z 02002KT 06/M05 A3037 RMK A01 T00571045  RH  048%=      5-min Rain = 0
KQU1 091837Z 02003KT 06/M04 A3037 RMK A01 T00571044  RH  048%=      5-min Rain = 0
KQU1 091838Z 35003KT 06/M04 A3037 RMK A01 T00571044  RH  048%=      5-min Rain = 0
KQU1 091839Z 01002KT 06/M05 A3037 RMK A01 T00571045  RH  048%=      5-min Rain = 0
KQU1 091840Z 03002KT 06/M05 A3037 RMK A01 T00571046  RH  047%=      5-min Rain = 0
KQU1 091841Z 08003KT 06/M05 A3037 RMK A01 T00571047  RH  047%=      5-min Rain = 0
KQU1 091842Z 09002KT 06/M05 A3037 RMK A01 T00581046  RH  047%=      5-min Rain = 0
KQU1 091843Z 02002KT 06/M05 A3037 RMK A01 T00581045  RH  048%=      5-min Rain = 0
KQU1 091844Z 36002KT 06/M04 A3037 RMK A01 T00581042  RH  048%=      5-min Rain = 0
KQU1 091845Z 32003KT 06/M04 A3037 RMK A01 T00581044  RH  048%=      5-min Rain = 0
KQU1 091846Z 29003KT 06/M05 A3037 RMK A01 T00571046  RH  048%=      5-min Rain = 0
KQU1 091847Z 29002KT 06/M05 A3037 RMK A01 T00561047  RH  047%=      5-min Rain = 0
KQU1 091848Z 32004KT 06/M05 A3037 RMK A01 T00561047  RH  047%=      5-min Rain = 0
KQU1 091849Z 31004KT 06/M05 A3037 RMK A01 T00561048  RH  047%=      5-min Rain = 0
KQU1 091850Z 30004KT 06/M05 A3037 RMK A01 T00551048  RH  047%=      5-min Rain = 0
KQU1 091851Z 31004KT 06/M05 A3036 RMK A01 T00551051  RH  046%=      5-min Rain = 0
KQU1 091852Z 31003KT 06/M05 A3036 RMK A01 T00551053  RH  046%=      5-min Rain = 0
KQU1 091853Z 31004KT 06/M05 A3036 RMK A01 T00551050  RH  047%=      5-min Rain = 0
KQU1 091854Z 30003KT 06/M05 A3036 RMK A01 T00561047  RH  048%=      5-min Rain = 0
KQU1 091855Z 29004KT 06/M05 A3036 RMK A01 T00561047  RH  047%=      5-min Rain = 0
KQU1 091856Z 29004KT 06/M05 A3036 RMK A01 T00571051  RH  046%=      5-min Rain = 0
KQU1 091857Z 30004KT 06/M05 A3036 RMK A01 T00561050  RH  046%=      5-min Rain = 0
KQU1 091858Z 35002KT 06/M04 A3036 RMK A01 T00581043  RH  048%=      5-min Rain = 0
KQU1 091859Z 35003KT 06/M05 A3036 RMK A01 T00591048  RH  046%=      5-min Rain = 0
KQU1 091900Z 01003KT 06/M04 A3036 RMK A01 T00591044  RH  048%=      5-min Rain = 0
KQU1 091901Z 01002KT 06/M05 A3036 RMK A01 T00591050  RH  045%=      5-min Rain = 0
KQU1 091902Z 02003KT 06/M04 A3036 RMK A01 T00591044  RH  047%=      5-min Rain = 0
KQU1 091903Z 01002KT 06/M05 A3036 RMK A01 T00601052  RH  044%=      5-min Rain = 0
KQU1 091904Z 01002KT 06/M05 A3036 RMK A01 T00601049  RH  045%=      5-min Rain = 0
KQU1 091905Z 33002KT 06/M05 A3036 RMK A01 T00601050  RH  045%=      5-min Rain = 0
KQU1 091906Z 34002KT 06/M05 A3036 RMK A01 T00591048  RH  046%=      5-min Rain = 0
KQU1 091907Z 00001KT 06/M05 A3036 RMK A01 T00611045  RH  047%=      5-min Rain = 0
KQU1 091908Z 01002KT 06/M05 A3036 RMK A01 T00621046  RH  046%=      5-min Rain = 0
KQU1 091909Z 34001KT 06/M05 A3036 RMK A01 T00621047  RH  046%=      5-min Rain = 0
KQU1 091910Z 32000KT 06/M05 A3036 RMK A01 T00611049  RH  045%=      5-min Rain = 0
KQU1 091911Z 30000KT 06/M04 A3036 RMK A01 T00631039  RH  048%=      5-min Rain = 0
KQU1 091912Z 27002KT 07/M04 A3036 RMK A01 T00661039  RH  047%=      5-min Rain = 0
KQU1 091913Z 26003KT 07/M04 A3035 RMK A01 T00661041  RH  046%=      5-min Rain = 0
KQU1 091914Z 27003KT 06/M05 A3035 RMK A01 T00641053  RH  043%=      5-min Rain = 0
KQU1 091915Z 27001KT 06/M05 A3035 RMK A01 T00631051  RH  044%=      5-min Rain = 0
KQU1 091916Z 34002KT 06/M05 A3035 RMK A01 T00641053  RH  043%=      5-min Rain = 0
KQU1 091917Z 02004KT 06/M06 A3035 RMK A01 T00631059  RH  041%=      5-min Rain = 0
KQU1 091918Z 03003KT 06/M06 A3035 RMK A01 T00631057  RH  042%=      5-min Rain = 0
KQU1 091919Z 04002KT 06/M06 A3035 RMK A01 T00641056  RH  042%=      5-min Rain = 0
KQU1 091920Z 04003KT 06/M05 A3035 RMK A01 T00641052  RH  043%=      5-min Rain = 0
KQU1 091921Z 05005KT 07/M06 A3035 RMK A01 T00651056  RH  042%=      5-min Rain = 0
KQU1 091922Z 04004KT 06/M05 A3035 RMK A01 T00641054  RH  042%=      5-min Rain = 0
KQU1 091923Z 03004KT 06/M06 A3035 RMK A01 T00641055  RH  042%=      5-min Rain = 0
KQU1 091924Z 03004KT 06/M05 A3035 RMK A01 T00641050  RH  044%=      5-min Rain = 0
KQU1 091925Z 04003KT 07/M05 A3035 RMK A01 T00651054  RH  042%=      5-min Rain = 0
KQU1 091926Z 05002KT 07/M05 A3035 RMK A01 T00651054  RH  042%=      5-min Rain = 0
KQU1 091927Z 02003KT 07/M05 A3035 RMK A01 T00661052  RH  043%=      5-min Rain = 0
KQU1 091928Z 00004KT 07/M05 A3035 RMK A01 T00651053  RH  043%=      5-min Rain = 0
KQU1 091929Z 03003KT 07/M05 A3035 RMK A01 T00651050  RH  044%=      5-min Rain = 0
KQU1 091930Z 05003KT 07/M05 A3035 RMK A01 T00651047  RH  045%=      5-min Rain = 0
KQU1 091931Z 05003KT 07/M04 A3035 RMK A01 T00661044  RH  045%=      5-min Rain = 0
KQU1 091932Z 06004KT 07/M05 A3035 RMK A01 T00661054  RH  042%=      5-min Rain = 0
KQU1 091933Z 07003KT 07/M06 A3034 RMK A01 T00661055  RH  042%=      5-min Rain = 0
KQU1 091934Z 06003KT 07/M06 A3034 RMK A01 T00661056  RH  041%=      5-min Rain = 0
KQU1 091935Z 08002KT 07/M05 A3034 RMK A01 T00661053  RH  042%=      5-min Rain = 0
KQU1 091936Z 03002KT 07/M06 A3034 RMK A01 T00671055  RH  041%=      5-min Rain = 0
KQU1 091937Z 00002KT 07/M06 A3035 RMK A01 T00671055  RH  042%=      5-min Rain = 0
KQU1 091938Z 31003KT 07/M06 A3035 RMK A01 T00661059  RH  041%=      5-min Rain = 0
KQU1 091939Z 29002KT 07/M06 A3035 RMK A01 T00661056  RH  041%=      5-min Rain = 0
KQU1 091940Z 26001KT 07/M06 A3035 RMK A01 T00671055  RH  041%=      5-min Rain = 0
KQU1 091941Z 29003KT 07/M06 A3035 RMK A01 T00671059  RH  040%=      5-min Rain = 0
KQU1 091942Z 28003KT 07/M06 A3035 RMK A01 T00671057  RH  041%=      5-min Rain = 0
KQU1 091943Z 34002KT 07/M05 A3035 RMK A01 T00681054  RH  042%=      5-min Rain = 0
KQU1 091944Z 07003KT 07/M05 A3035 RMK A01 T00701052  RH  042%=      5-min Rain = 0
KQU1 091945Z 08002KT 07/M05 A3035 RMK A01 T00701053  RH  041%=      5-min Rain = 0
KQU1 091946Z 08002KT 07/M05 A3035 RMK A01 T00701052  RH  041%=      5-min Rain = 0
KQU1 091947Z 05003KT 07/M05 A3035 RMK A01 T00711053  RH  041%=      5-min Rain = 0
KQU1 091948Z 03003KT 07/M05 A3035 RMK A01 T00711050  RH  042%=      5-min Rain = 0
KQU1 091949Z 03003KT 07/M06 A3035 RMK A01 T00701057  RH  040%=      5-min Rain = 0
KQU1 091950Z 03003KT 07/M06 A3035 RMK A01 T00691059  RH  040%=      5-min Rain = 0
KQU1 091951Z 04002KT 07/M06 A3035 RMK A01 T00681055  RH  041%=      5-min Rain = 0
KQU1 091952Z 04002KT 07/M05 A3035 RMK A01 T00691054  RH  041%=      5-min Rain = 0
KQU1 091953Z 00002KT 07/M05 A3035 RMK A01 T00691052  RH  042%=      5-min Rain = 0
KQU1 091954Z 31003KT 07/M05 A3035 RMK A01 T00691049  RH  043%=      5-min Rain = 0
KQU1 091955Z 30002KT 07/M06 A3035 RMK A01 T00681055  RH  041%=      5-min Rain = 0
KQU1 091956Z 33001KT 07/M06 A3035 RMK A01 T00691056  RH  041%=      5-min Rain = 0
KQU1 091957Z 34000KT 07/M05 A3035 RMK A01 T00691054  RH  041%=      5-min Rain = 0
KQU1 091958Z 29001KT 07/M05 A3035 RMK A01 T00701050  RH  042%=      5-min Rain = 0
KQU1 091959Z 24002KT 07/M05 A3035 RMK A01 T00711052  RH  041%=      5-min Rain = 0
KQU1 092000Z 29004KT 07/M05 A3035 RMK A01 T00721049  RH  042%=      5-min Rain = 0
KQU1 092001Z 30004KT 07/M05 A3035 RMK A01 T00721048  RH  042%=      5-min Rain = 0
KQU1 092002Z 30005KT 07/M04 A3035 RMK A01 T00721044  RH  044%=      5-min Rain = 0
KQU1 092003Z 30005KT 07/M04 A3035 RMK A01 T00711044  RH  044%=      5-min Rain = 0
KQU1 092004Z 30004KT 07/M05 A3035 RMK A01 T00701045  RH  044%=      5-min Rain = 0
KQU1 092005Z 32004KT 07/M05 A3035 RMK A01 T00701048  RH  043%=      5-min Rain = 0
KQU1 092006Z 31003KT 07/M05 A3035 RMK A01 T00681053  RH  042%=      5-min Rain = 0
KQU1 092007Z 32002KT 07/M05 A3034 RMK A01 T00681052  RH  042%=      5-min Rain = 0
KQU1 092008Z 02001KT 07/M05 A3034 RMK A01 T00691050  RH  042%=      5-min Rain = 0
KQU1 092009Z 34002KT 07/M05 A3034 RMK A01 T00701048  RH  043%=      5-min Rain = 0
KQU1 092010Z 32002KT 07/M05 A3034 RMK A01 T00711050  RH  042%=      5-min Rain = 0
KQU1 092011Z 29002KT 07/M05 A3034 RMK A01 T00711049  RH  042%=      5-min Rain = 0
KQU1 092012Z 29003KT 07/M04 A3034 RMK A01 T00721042  RH  044%=      5-min Rain = 0
KQU1 092013Z 27002KT 07/M05 A3034 RMK A01 T00731049  RH  042%=      5-min Rain = 0
KQU1 092014Z 25002KT 07/M05 A3034 RMK A01 T00731051  RH  041%=      5-min Rain = 0
KQU1 092015Z 21002KT 07/M06 A3034 RMK A01 T00731056  RH  039%=      5-min Rain = 0
KQU1 092016Z 21001KT 07/M06 A3034 RMK A01 T00731055  RH  040%=      5-min Rain = 0
KQU1 092017Z 24001KT 07/M06 A3034 RMK A01 T00731056  RH  039%=      5-min Rain = 0
KQU1 092018Z 24002KT 07/M05 A3034 RMK A01 T00731053  RH  040%=      5-min Rain = 0
KQU1 092019Z 24002KT 08/M05 A3034 RMK A01 T00751046  RH  042%=      5-min Rain = 0
KQU1 092020Z 22001KT 08/M05 A3034 RMK A01 T00761053  RH  040%=      5-min Rain = 0
KQU1 092021Z 21001KT 08/M06 A3034 RMK A01 T00761056  RH  039%=      5-min Rain = 0
KQU1 092022Z 22000KT 08/M05 A3034 RMK A01 T00771047  RH  041%=      5-min Rain = 0
KQU1 092023Z 08001KT 08/M04 A3034 RMK A01 T00801044  RH  041%=      5-min Rain = 0
KQU1 092024Z 09001KT 08/M05 A3034 RMK A01 T00811052  RH  039%=      5-min Rain = 0
KQU1 092025Z 06001KT 08/M05 A3033 RMK A01 T00811050  RH  039%=      5-min Rain = 0
KQU1 092026Z 06001KT 08/M05 A3033 RMK A01 T00811045  RH  041%=      5-min Rain = 0
KQU1 092027Z 07004KT 08/M05 A3033 RMK A01 T00811048  RH  040%=      5-min Rain = 0
KQU1 092028Z 05003KT 08/M05 A3033 RMK A01 T00801050  RH  039%=      5-min Rain = 0
KQU1 092029Z 03003KT 08/M05 A3033 RMK A01 T00781048  RH  041%=      5-min Rain = 0
KQU1 092030Z 03004KT 08/M05 A3033 RMK A01 T00771046  RH  041%=      5-min Rain = 0
KQU1 092031Z 02003KT 08/M05 A3033 RMK A01 T00761053  RH  039%=      5-min Rain = 0
KQU1 092032Z 03003KT 08/M05 A3033 RMK A01 T00751051  RH  041%=      5-min Rain = 0
KQU1 092033Z 05003KT 08/M05 A3033 RMK A01 T00751051  RH  040%=      5-min Rain = 0
KQU1 092034Z 07002KT 08/M05 A3033 RMK A01 T00751051  RH  040%=      5-min Rain = 0
KQU1 092035Z 10001KT 08/M05 A3033 RMK A01 T00751052  RH  040%=      5-min Rain = 0
KQU1 092036Z 13001KT 08/M05 A3033 RMK A01 T00751052  RH  040%=      5-min Rain = 0
KQU1 092037Z 12002KT 08/M05 A3033 RMK A01 T00771049  RH  041%=      5-min Rain = 0
KQU1 092038Z 10002KT 08/M05 A3033 RMK A01 T00781050  RH  040%=      5-min Rain = 0
KQU1 092039Z 12002KT 08/M05 A3034 RMK A01 T00801046  RH  040%=      5-min Rain = 0
KQU1 092040Z 14001KT 08/M05 A3034 RMK A01 T00811051  RH  039%=      5-min Rain = 0
KQU1 092041Z 08001KT 08/M05 A3034 RMK A01 T00821046  RH  040%=      5-min Rain = 0
KQU1 092042Z 01002KT 08/M05 A3034 RMK A01 T00821048  RH  039%=      5-min Rain = 0
KQU1 092043Z 01002KT 08/M05 A3034 RMK A01 T00811050  RH  039%=      5-min Rain = 0
KQU1 092044Z 02002KT 08/M05 A3034 RMK A01 T00791050  RH  040%=      5-min Rain = 0
KQU1 092045Z 03002KT 08/M05 A3034 RMK A01 T00781050  RH  040%=      5-min Rain = 0
KQU1 092046Z 34002KT 08/M05 A3034 RMK A01 T00771045  RH  042%=      5-min Rain = 0
KQU1 092047Z 35002KT 08/M05 A3034 RMK A01 T00771046  RH  041%=      5-min Rain = 0
KQU1 092048Z 36001KT 08/M05 A3034 RMK A01 T00771046  RH  041%=      5-min Rain = 0
KQU1 092049Z 35001KT 08/M05 A3034 RMK A01 T00771046  RH  041%=      5-min Rain = 0
KQU1 092050Z 04000KT 08/M05 A3034 RMK A01 T00781047  RH  041%=      5-min Rain = 0
KQU1 092051Z 00001KT 08/M04 A3034 RMK A01 T00791044  RH  041%=      5-min Rain = 0
KQU1 092052Z 04001KT 08/M04 A3034 RMK A01 T00811041  RH  042%=      5-min Rain = 0
KQU1 092053Z 05002KT 08/M04 A3033 RMK A01 T00821042  RH  041%=      5-min Rain = 0
KQU1 092054Z 09001KT 08/M04 A3033 RMK A01 T00821043  RH  041%=      5-min Rain = 0
KQU1 092055Z 05001KT 08/M04 A3034 RMK A01 T00831041  RH  041%=      5-min Rain = 0
KQU1 092056Z 01001KT 08/M04 A3034 RMK A01 T00821044  RH  040%=      5-min Rain = 0
KQU1 092057Z 03001KT 08/M04 A3034 RMK A01 T00811043  RH  041%=      5-min Rain = 0
KQU1 092058Z 04002KT 08/M04 A3034 RMK A01 T00811041  RH  042%=      5-min Rain = 0
KQU1 092059Z 01001KT 08/M04 A3034 RMK A01 T00821039  RH  042%=      5-min Rain = 0
KQU1 092100Z 01000KT 08/M04 A3034 RMK A01 T00811043  RH  041%=      5-min Rain = 0
KQU1 092101Z 06001KT 08/M04 A3034 RMK A01 T00821040  RH  042%=      5-min Rain = 0
KQU1 092102Z 06002KT 08/M04 A3034 RMK A01 T00841035  RH  043%=      5-min Rain = 0
KQU1 092103Z 04002KT 09/M04 A3034 RMK A01 T00861035  RH  042%=      5-min Rain = 0
KQU1 092104Z 00001KT 09/M04 A3034 RMK A01 T00861037  RH  042%=      5-min Rain = 0
KQU1 092105Z 02002KT 09/M04 A3034 RMK A01 T00861036  RH  042%=      5-min Rain = 0
KQU1 092106Z 01002KT 09/M04 A3034 RMK A01 T00851037  RH  042%=      5-min Rain = 0
KQU1 092107Z 36002KT 08/M04 A3034 RMK A01 T00841037  RH  042%=      5-min Rain = 0
KQU1 092108Z 36002KT 08/M04 A3034 RMK A01 T00821036  RH  043%=      5-min Rain = 0
KQU1 092109Z 34002KT 08/M03 A3034 RMK A01 T00821034  RH  044%=      5-min Rain = 0
KQU1 092110Z 35000KT 08/M04 A3034 RMK A01 T00811037  RH  043%=      5-min Rain = 0
KQU1 092111Z 00000KT 08/M04 A3034 RMK A01 T00811036  RH  043%=      5-min Rain = 0
KQU1 092112Z 00000KT 08/M04 A3034 RMK A01 T00831035  RH  043%=      5-min Rain = 0
KQU1 092113Z 00000KT 08/M03 A3034 RMK A01 T00841032  RH  044%=      5-min Rain = 0
KQU1 092114Z 00000KT 09/M03 A3034 RMK A01 T00871029  RH  044%=      5-min Rain = 0
KQU1 092115Z 00000KT 09/M03 A3034 RMK A01 T00891026  RH  044%=      5-min Rain = 0
KQU1 092116Z 12001KT 09/M03 A3034 RMK A01 T00911030  RH  042%=      5-min Rain = 0
KQU1 092117Z 11001KT 09/M03 A3034 RMK A01 T00931030  RH  042%=      5-min Rain = 0
KQU1 092118Z 15002KT 09/M03 A3034 RMK A01 T00941029  RH  042%=      5-min Rain = 0
KQU1 092119Z 15003KT 09/M04 A3034 RMK A01 T00931036  RH  040%=      5-min Rain = 0
KQU1 092120Z 11002KT 09/M04 A3034 RMK A01 T00911036  RH  041%=      5-min Rain = 0
KQU1 092121Z 10002KT 09/M04 A3033 RMK A01 T00901036  RH  041%=      5-min Rain = 0
KQU1 092122Z 09002KT 09/M04 A3033 RMK A01 T00891035  RH  041%=      5-min Rain = 0
KQU1 092123Z 11001KT 09/M04 A3034 RMK A01 T00881038  RH  041%=      5-min Rain = 0
KQU1 092124Z 18002KT 09/M04 A3034 RMK A01 T00881036  RH  041%=      5-min Rain = 0
KQU1 092125Z 20001KT 09/M04 A3034 RMK A01 T00881037  RH  041%=      5-min Rain = 0
KQU1 092126Z 22001KT 09/M04 A3034 RMK A01 T00881036  RH  041%=      5-min Rain = 0
KQU1 092127Z 19002KT 09/M04 A3034 RMK A01 T00881036  RH  041%=      5-min Rain = 0
KQU1 092128Z 16003KT 09/M03 A3034 RMK A01 T00891033  RH  042%=      5-min Rain = 0
KQU1 092129Z 16003KT 09/M04 A3034 RMK A01 T00891037  RH  041%=      5-min Rain = 0
KQU1 092130Z 16003KT 09/M03 A3034 RMK A01 T00891034  RH  042%=      5-min Rain = 0
KQU1 092131Z 16003KT 09/M03 A3034 RMK A01 T00901031  RH  042%=      5-min Rain = 0
KQU1 092132Z 15003KT 09/M03 A3033 RMK A01 T00901034  RH  042%=      5-min Rain = 0
KQU1 092133Z 16004KT 09/M04 A3033 RMK A01 T00901036  RH  041%=      5-min Rain = 0
KQU1 092134Z 16003KT 09/M04 A3033 RMK A01 T00881039  RH  041%=      5-min Rain = 0
KQU1 092135Z 15001KT 09/M04 A3033 RMK A01 T00871035  RH  042%=      5-min Rain = 0
KQU1 092136Z 11002KT 09/M04 A3033 RMK A01 T00881035  RH  042%=      5-min Rain = 0
KQU1 092137Z 10003KT 09/M03 A3033 RMK A01 T00891034  RH  042%=      5-min Rain = 0
KQU1 092138Z 10003KT 09/M04 A3033 RMK A01 T00881036  RH  041%=      5-min Rain = 0
KQU1 092139Z 10002KT 09/M04 A3033 RMK A01 T00871037  RH  041%=      5-min Rain = 0
KQU1 092140Z 13002KT 09/M03 A3033 RMK A01 T00871032  RH  043%=      5-min Rain = 0
KQU1 092141Z 12002KT 09/M03 A3033 RMK A01 T00881033  RH  042%=      5-min Rain = 0
KQU1 092142Z 12001KT 09/M03 A3033 RMK A01 T00891033  RH  042%=      5-min Rain = 0
KQU1 092143Z 11001KT 09/M04 A3033 RMK A01 T00891036  RH  041%=      5-min Rain = 0
KQU1 092144Z 12002KT 09/M04 A3033 RMK A01 T00901035  RH  041%=      5-min Rain = 0
KQU1 092145Z 17004KT 09/M03 A3033 RMK A01 T00901031  RH  043%=      5-min Rain = 0
KQU1 092146Z 18003KT 09/M03 A3033 RMK A01 T00891032  RH  043%=      5-min Rain = 0
KQU1 092147Z 18002KT 09/M03 A3033 RMK A01 T00881030  RH  043%=      5-min Rain = 0
KQU1 092148Z 16002KT 09/M03 A3033 RMK A01 T00891031  RH  043%=      5-min Rain = 0
KQU1 092149Z 16002KT 09/M04 A3033 RMK A01 T00891036  RH  041%=      5-min Rain = 0
KQU1 092150Z 18002KT 09/M03 A3033 RMK A01 T00881033  RH  042%=      5-min Rain = 0
KQU1 092151Z 21002KT 09/M03 A3033 RMK A01 T00881032  RH  042%=      5-min Rain = 0
KQU1 092152Z 21001KT 09/M03 A3033 RMK A01 T00881032  RH  042%=      5-min Rain = 0
KQU1 092153Z 15001KT 09/M03 A3033 RMK A01 T00891030  RH  043%=      5-min Rain = 0
KQU1 092154Z 13003KT 09/M03 A3033 RMK A01 T00911029  RH  043%=      5-min Rain = 0
KQU1 092155Z 14004KT 09/M03 A3033 RMK A01 T00921031  RH  042%=      5-min Rain = 0
KQU1 092156Z 15004KT 09/M04 A3033 RMK A01 T00911035  RH  041%=      5-min Rain = 0
KQU1 092157Z 15004KT 09/M03 A3033 RMK A01 T00891033  RH  042%=      5-min Rain = 0
KQU1 092158Z 16004KT 09/M03 A3033 RMK A01 T00891033  RH  042%=      5-min Rain = 0
KQU1 092159Z 18002KT 09/M04 A3033 RMK A01 T00881035  RH  042%=      5-min Rain = 0
KQU1 092200Z 16001KT 09/M03 A3033 RMK A01 T00881030  RH  043%=      5-min Rain = 0
KQU1 092201Z 13001KT 09/M03 A3033 RMK A01 T00891031  RH  043%=      5-min Rain = 0
KQU1 092202Z 15003KT 09/M03 A3033 RMK A01 T00891032  RH  042%=      5-min Rain = 0
KQU1 092203Z 14003KT 09/M04 A3033 RMK A01 T00881036  RH  041%=      5-min Rain = 0
KQU1 092204Z 15003KT 09/M04 A3033 RMK A01 T00881035  RH  042%=      5-min Rain = 0
KQU1 092205Z 15003KT 09/M04 A3033 RMK A01 T00871036  RH  042%=      5-min Rain = 0
KQU1 092206Z 15003KT 09/M04 A3033 RMK A01 T00871036  RH  042%=      5-min Rain = 0
KQU1 092207Z 14003KT 09/M04 A3033 RMK A01 T00871036  RH  042%=      5-min Rain = 0
KQU1 092208Z 15002KT 09/M04 A3033 RMK A01 T00871037  RH  041%=      5-min Rain = 0
KQU1 092209Z 11001KT 09/M04 A3033 RMK A01 T00881035  RH  042%=      5-min Rain = 0
KQU1 092210Z 12002KT 09/M04 A3034 RMK A01 T00881036  RH  041%=      5-min Rain = 0
KQU1 092211Z 12002KT 09/M03 A3034 RMK A01 T00891032  RH  042%=      5-min Rain = 0
KQU1 092212Z 12004KT 09/M03 A3034 RMK A01 T00891033  RH  042%=      5-min Rain = 0
KQU1 092213Z 11002KT 09/M04 A3034 RMK A01 T00881036  RH  041%=      5-min Rain = 0
KQU1 092214Z 12002KT 09/M04 A3034 RMK A01 T00881035  RH  042%=      5-min Rain = 0
KQU1 092215Z 13002KT 09/M03 A3034 RMK A01 T00881030  RH  043%=      5-min Rain = 0
KQU1 092216Z 11002KT 09/M03 A3034 RMK A01 T00891028  RH  044%=      5-min Rain = 0
KQU1 092217Z 14002KT 09/M03 A3034 RMK A01 T00901030  RH  043%=      5-min Rain = 0
KQU1 092218Z 08001KT 09/M03 A3034 RMK A01 T00901031  RH  042%=      5-min Rain = 0
KQU1 092219Z 09002KT 09/M03 A3034 RMK A01 T00901034  RH  041%=      5-min Rain = 0
KQU1 092220Z 10002KT 09/M03 A3034 RMK A01 T00891034  RH  042%=      5-min Rain = 0
KQU1 092221Z 09002KT 09/M03 A3034 RMK A01 T00891028  RH  044%=      5-min Rain = 0
KQU1 092222Z 12003KT 09/M03 A3034 RMK A01 T00891027  RH  044%=      5-min Rain = 0
KQU1 092223Z 11003KT 09/M03 A3033 RMK A01 T00891029  RH  043%=      5-min Rain = 0
KQU1 092224Z 12003KT 09/M03 A3033 RMK A01 T00881032  RH  043%=      5-min Rain = 0
KQU1 092225Z 13003KT 09/M03 A3033 RMK A01 T00881030  RH  043%=      5-min Rain = 0
KQU1 092226Z 13002KT 09/M03 A3033 RMK A01 T00881030  RH  043%=      5-min Rain = 0
KQU1 092227Z 11002KT 09/M03 A3033 RMK A01 T00891031  RH  043%=      5-min Rain = 0
KQU1 092228Z 11003KT 09/M03 A3033 RMK A01 T00891033  RH  042%=      5-min Rain = 0
KQU1 092229Z 11003KT 09/M03 A3033 RMK A01 T00891033  RH  042%=      5-min Rain = 0
KQU1 092230Z 11003KT 09/M04 A3033 RMK A01 T00871037  RH  041%=      5-min Rain = 0
KQU1 092231Z 13003KT 09/M03 A3033 RMK A01 T00861033  RH  043%=      5-min Rain = 0
KQU1 092232Z 13004KT 09/M03 A3033 RMK A01 T00871031  RH  044%=      5-min Rain = 0
KQU1 092233Z 12003KT 09/M03 A3033 RMK A01 T00861031  RH  043%=      5-min Rain = 0
KQU1 092234Z 14003KT 09/M03 A3033 RMK A01 T00861030  RH  044%=      5-min Rain = 0
KQU1 092235Z 14004KT 09/M03 A3033 RMK A01 T00861029  RH  044%=      5-min Rain = 0
KQU1 092236Z 15003KT 09/M03 A3033 RMK A01 T00871029  RH  044%=      5-min Rain = 0
KQU1 092237Z 15005KT 09/M03 A3033 RMK A01 T00871028  RH  044%=      5-min Rain = 0
KQU1 092238Z 15004KT 09/M03 A3033 RMK A01 T00861027  RH  045%=      5-min Rain = 0
KQU1 092239Z 15005KT 09/M03 A3033 RMK A01 T00861028  RH  045%=      5-min Rain = 0
KQU1 092240Z 15005KT 09/M03 A3033 RMK A01 T00851029  RH  045%=      5-min Rain = 0
KQU1 092241Z 15004KT 08/M03 A3033 RMK A01 T00841028  RH  045%=      5-min Rain = 0
KQU1 092242Z 15004KT 08/M03 A3033 RMK A01 T00831029  RH  045%=      5-min Rain = 0
KQU1 092243Z 16004KT 08/M03 A3033 RMK A01 T00821026  RH  046%=      5-min Rain = 0
KQU1 092244Z 15004KT 08/M03 A3033 RMK A01 T00821025  RH  047%=      5-min Rain = 0
KQU1 092245Z 16004KT 08/M03 A3033 RMK A01 T00811025  RH  047%=      5-min Rain = 0
KQU1 092246Z 16005KT 08/M03 A3033 RMK A01 T00811026  RH  047%=      5-min Rain = 0
KQU1 092247Z 16005KT 08/M03 A3033 RMK A01 T00801029  RH  046%=      5-min Rain = 0
KQU1 092248Z 16005KT 08/M03 A3033 RMK A01 T00791029  RH  046%=      5-min Rain = 0
KQU1 092249Z 15005KT 08/M03 A3033 RMK A01 T00781027  RH  047%=      5-min Rain = 0
KQU1 092250Z 15005KT 08/M03 A3033 RMK A01 T00771028  RH  047%=      5-min Rain = 0
KQU1 092251Z 15005KT 08/M03 A3033 RMK A01 T00771026  RH  048%=      5-min Rain = 0
KQU1 092252Z 15005KT 08/M03 A3033 RMK A01 T00771026  RH  048%=      5-min Rain = 0
KQU1 092253Z 16005KT 08/M03 A3033 RMK A01 T00771026  RH  048%=      5-min Rain = 0
KQU1 092254Z 15005KT 08/M03 A3033 RMK A01 T00761025  RH  049%=      5-min Rain = 0
KQU1 092255Z 15005KT 08/M03 A3033 RMK A01 T00761025  RH  049%=      5-min Rain = 0
KQU1 092256Z 15005KT 08/M03 A3033 RMK A01 T00761026  RH  048%=      5-min Rain = 0
KQU1 092257Z 15005KT 08/M03 A3033 RMK A01 T00751025  RH  049%=      5-min Rain = 0
KQU1 092258Z 15005KT 08/M03 A3033 RMK A01 T00751026  RH  049%=      5-min Rain = 0
KQU1 092259Z 15005KT 08/M03 A3033 RMK A01 T00751025  RH  049%=      5-min Rain = 0
KQU1 092300Z 15005KT 08/M03 A3033 RMK A01 T00751025  RH  049%=      5-min Rain = 0
KQU1 092301Z 16005KT 07/M03 A3033 RMK A01 T00741025  RH  049%=      5-min Rain = 0
KQU1 092302Z 16005KT 07/M02 A3033 RMK A01 T00731024  RH  050%=      5-min Rain = 0
KQU1 092303Z 15005KT 07/M02 A3033 RMK A01 T00731023  RH  050%=      5-min Rain = 0
KQU1 092304Z 15005KT 07/M02 A3033 RMK A01 T00721023  RH  051%=      5-min Rain = 0
KQU1 092305Z 15005KT 07/M02 A3033 RMK A01 T00721023  RH  051%=      5-min Rain = 0
KQU1 092306Z 15005KT 07/M02 A3033 RMK A01 T00711023  RH  051%=      5-min Rain = 0
KQU1 092307Z 15005KT 07/M02 A3033 RMK A01 T00711023  RH  051%=      5-min Rain = 0
KQU1 092308Z 15005KT 07/M02 A3033 RMK A01 T00701022  RH  052%=      5-min Rain = 0
KQU1 092309Z 16005KT 07/M02 A3033 RMK A01 T00691022  RH  052%=      5-min Rain = 0
KQU1 092310Z 16005KT 07/M02 A3033 RMK A01 T00681022  RH  053%=      5-min Rain = 0
KQU1 092311Z 16005KT 07/M02 A3033 RMK A01 T00671022  RH  053%=      5-min Rain = 0
KQU1 092312Z 16004KT 07/M02 A3033 RMK A01 T00661023  RH  053%=      5-min Rain = 0
KQU1 092313Z 16004KT 07/M02 A3033 RMK A01 T00651023  RH  053%=      5-min Rain = 0
KQU1 092314Z 15003KT 07/M02 A3033 RMK A01 T00651022  RH  053%=      5-min Rain = 0
KQU1 092315Z 15003KT 07/M02 A3033 RMK A01 T00651022  RH  054%=      5-min Rain = 0
KQU1 092316Z 16003KT 07/M02 A3033 RMK A01 T00651022  RH  053%=      5-min Rain = 0
KQU1 092317Z 16003KT 07/M02 A3033 RMK A01 T00651023  RH  053%=      5-min Rain = 0
KQU1 092318Z 16003KT 06/M02 A3033 RMK A01 T00641023  RH  054%=      5-min Rain = 0
KQU1 092319Z 16003KT 06/M02 A3033 RMK A01 T00641024  RH  054%=      5-min Rain = 0
KQU1 092320Z 17003KT 06/M02 A3033 RMK A01 T00631024  RH  054%=      5-min Rain = 0
KQU1 092321Z 17003KT 06/M02 A3033 RMK A01 T00621022  RH  055%=      5-min Rain = 0
KQU1 092322Z 16003KT 06/M02 A3033 RMK A01 T00611023  RH  055%=      5-min Rain = 0
KQU1 092323Z 16003KT 06/M02 A3033 RMK A01 T00601023  RH  055%=      5-min Rain = 0
KQU1 092324Z 16003KT 06/M02 A3033 RMK A01 T00591021  RH  056%=      5-min Rain = 0
KQU1 092325Z 16003KT 06/M02 A3033 RMK A01 T00581021  RH  057%=      5-min Rain = 0
KQU1 092326Z 16003KT 06/M02 A3033 RMK A01 T00571022  RH  057%=      5-min Rain = 0
KQU1 092327Z 16003KT 06/M02 A3033 RMK A01 T00561022  RH  057%=      5-min Rain = 0
KQU1 092328Z 16003KT 06/M02 A3033 RMK A01 T00551023  RH  057%=      5-min Rain = 0
KQU1 092329Z 17003KT 05/M02 A3033 RMK A01 T00541024  RH  057%=      5-min Rain = 0
KQU1 092330Z 17003KT 05/M02 A3033 RMK A01 T00531024  RH  058%=      5-min Rain = 0
KQU1 092331Z 17003KT 05/M02 A3033 RMK A01 T00521023  RH  058%=      5-min Rain = 0
KQU1 092332Z 18004KT 05/M02 A3033 RMK A01 T00521022  RH  059%=      5-min Rain = 0
KQU1 092333Z 19004KT 05/M02 A3033 RMK A01 T00511021  RH  060%=      5-min Rain = 0
KQU1 092334Z 19005KT 05/M02 A3033 RMK A01 T00501020  RH  061%=      5-min Rain = 0
KQU1 092335Z 19006KT 05/M02 A3033 RMK A01 T00481021  RH  061%=      5-min Rain = 0
KQU1 092336Z 20006KT 05/M02 A3033 RMK A01 T00471021  RH  061%=      5-min Rain = 0
KQU1 092337Z 20006KT 05/M02 A3033 RMK A01 T00461021  RH  062%=      5-min Rain = 0
KQU1 092338Z 21006KT 04/M02 A3033 RMK A01 T00441021  RH  063%=      5-min Rain = 0
KQU1 092339Z 20007KT 04/M02 A3033 RMK A01 T00421020  RH  064%=      5-min Rain = 0
KQU1 092340Z 20007KT 04/M02 A3033 RMK A01 T00401020  RH  065%=      5-min Rain = 0
KQU1 092341Z 21007KT 04/M02 A3033 RMK A01 T00381020  RH  066%=      5-min Rain = 0
KQU1 092342Z 20007KT 04/M02 A3033 RMK A01 T00371019  RH  067%=      5-min Rain = 0
KQU1 092343Z 21007KT 04/M02 A3033 RMK A01 T00361019  RH  067%=      5-min Rain = 0
KQU1 092344Z 21007KT 04/M02 A3033 RMK A01 T00351019  RH  068%=      5-min Rain = 0
KQU1 092345Z 21007KT 03/M02 A3033 RMK A01 T00331020  RH  068%=      5-min Rain = 0
KQU1 092346Z 21007KT 03/M02 A3033 RMK A01 T00321021  RH  069%=      5-min Rain = 0
KQU1 092347Z 21007KT 03/M02 A3033 RMK A01 T00311021  RH  069%=      5-min Rain = 0
KQU1 092348Z 21007KT 03/M02 A3033 RMK A01 T00301021  RH  069%=      5-min Rain = 0
KQU1 092349Z 21007KT 03/M02 A3033 RMK A01 T00291021  RH  070%=      5-min Rain = 0
KQU1 092350Z 22007KT 03/M02 A3034 RMK A01 T00281021  RH  070%=      5-min Rain = 0
KQU1 092351Z 22007KT 03/M02 A3034 RMK A01 T00271021  RH  071%=      5-min Rain = 0
KQU1 092352Z 22007KT 03/M02 A3034 RMK A01 T00261020  RH  072%=      5-min Rain = 0
KQU1 092353Z 22007KT 02/M02 A3034 RMK A01 T00241020  RH  072%=      5-min Rain = 0
KQU1 092354Z 23006KT 02/M02 A3034 RMK A01 T00231020  RH  074%=      5-min Rain = 0
KQU1 092355Z 24005KT 02/M02 A3034 RMK A01 T00211020  RH  074%=      5-min Rain = 0
KQU1 092356Z 24006KT 02/M02 A3034 RMK A01 T00201019  RH  075%=      5-min Rain = 0
KQU1 092357Z 23007KT 02/M02 A3034 RMK A01 T00211017  RH  076%=      5-min Rain = 0
KQU1 092358Z 23007KT 02/M02 A3034 RMK A01 T00221015  RH  076%=      5-min Rain = 0
KQU1 092359Z 24006KT 02/M02 A3034 RMK A01 T00231015  RH  076%=      5-min Rain = 0
KQU1 100000Z 25005KT 02/M02 A3034 RMK A01 T00231015  RH  076%=      5-min Rain = 0
KQU1 100001Z 26005KT 02/M02 A3034 RMK A01 T00231016  RH  076%=      5-min Rain = 0
KQU1 100002Z 26006KT 02/M02 A3034 RMK A01 T00221016  RH  076%=      5-min Rain = 0
KQU1 100003Z 25006KT 02/M02 A3034 RMK A01 T00211016  RH  077%=      5-min Rain = 0
KQU1 100004Z 25006KT 02/M02 A3034 RMK A01 T00201016  RH  077%=      5-min Rain = 0
KQU1 100005Z 25006KT 02/M02 A3034 RMK A01 T00191016  RH  077%=      5-min Rain = 0
KQU1 100006Z 25006KT 02/M02 A3034 RMK A01 T00181017  RH  078%=      5-min Rain = 0
KQU1 100007Z 25005KT 02/M02 A3034 RMK A01 T00181016  RH  078%=      5-min Rain = 0
KQU1 100008Z 24006KT 02/M02 A3034 RMK A01 T00181015  RH  079%=      5-min Rain = 0
KQU1 100009Z 24006KT 02/M02 A3034 RMK A01 T00181016  RH  079%=      5-min Rain = 0
KQU1 100010Z 24006KT 02/M02 A3034 RMK A01 T00171017  RH  078%=      5-min Rain = 0
KQU1 100011Z 24005KT 02/M02 A3034 RMK A01 T00161017  RH  079%=      5-min Rain = 0
KQU1 100012Z 24006KT 02/M02 A3034 RMK A01 T00161018  RH  079%=      5-min Rain = 0
KQU1 100013Z 24006KT 02/M02 A3034 RMK A01 T00151018  RH  079%=      5-min Rain = 0
KQU1 100014Z 24006KT 02/M02 A3035 RMK A01 T00151017  RH  079%=      5-min Rain = 0
KQU1 100015Z 25005KT 02/M02 A3035 RMK A01 T00151017  RH  079%=      5-min Rain = 0
KQU1 100016Z 26006KT 02/M02 A3035 RMK A01 T00151017  RH  079%=      5-min Rain = 0
KQU1 100017Z 26006KT 02/M02 A3035 RMK A01 T00151017  RH  079%=      5-min Rain = 0
KQU1 100018Z 26006KT 02/M02 A3035 RMK A01 T00151017  RH  079%=      5-min Rain = 0
KQU1 100019Z 27006KT 01/M02 A3035 RMK A01 T00141018  RH  079%=      5-min Rain = 0
KQU1 100020Z 27006KT 01/M02 A3035 RMK A01 T00131019  RH  080%=      5-min Rain = 0
KQU1 100021Z 27007KT 01/M02 A3035 RMK A01 T00121018  RH  080%=      5-min Rain = 0
KQU1 100022Z 27007KT 01/M02 A3035 RMK A01 T00121017  RH  081%=      5-min Rain = 0
KQU1 100023Z 27006KT 01/M02 A3035 RMK A01 T00121017  RH  081%=      5-min Rain = 0
KQU1 100024Z 27006KT 01/M02 A3035 RMK A01 T00111017  RH  081%=      5-min Rain = 0
KQU1 100025Z 26006KT 01/M02 A3035 RMK A01 T00111017  RH  081%=      5-min Rain = 0
KQU1 100026Z 26007KT 01/M02 A3034 RMK A01 T00101017  RH  082%=      5-min Rain = 0
KQU1 100027Z 26006KT 01/M02 A3035 RMK A01 T00101017  RH  082%=      5-min Rain = 0
KQU1 100028Z 26006KT 01/M02 A3035 RMK A01 T00091017  RH  082%=      5-min Rain = 0
KQU1 100029Z 26006KT 01/M02 A3035 RMK A01 T00091017  RH  083%=      5-min Rain = 0
KQU1 100030Z 27006KT 01/M02 A3035 RMK A01 T00091017  RH  083%=      5-min Rain = 0
KQU1 100031Z 27007KT 01/M02 A3035 RMK A01 T00091017  RH  083%=      5-min Rain = 0
KQU1 100032Z 27007KT 01/M02 A3035 RMK A01 T00091016  RH  083%=      5-min Rain = 0
KQU1 100033Z 27007KT 01/M02 A3035 RMK A01 T00091016  RH  083%=      5-min Rain = 0
KQU1 100034Z 28007KT 01/M02 A3035 RMK A01 T00101015  RH  083%=      5-min Rain = 0
KQU1 100035Z 28007KT 01/M02 A3035 RMK A01 T00101015  RH  083%=      5-min Rain = 0
KQU1 100036Z 28007KT 01/M02 A3035 RMK A01 T00101016  RH  083%=      5-min Rain = 0
KQU1 100037Z 28007KT 01/M02 A3035 RMK A01 T00101016  RH  083%=      5-min Rain = 0
KQU1 100038Z 28008KT 01/M02 A3035 RMK A01 T00101015  RH  083%=      5-min Rain = 0
KQU1 100039Z 29007KT 01/M02 A3035 RMK A01 T00101015  RH  083%=      5-min Rain = 0
KQU1 100040Z 29007KT 01/M02 A3035 RMK A01 T00101015  RH  083%=      5-min Rain = 0
KQU1 100041Z 29007KT 01/M02 A3035 RMK A01 T00111015  RH  083%=      5-min Rain = 0
KQU1 100042Z 29008KT 01/M01 A3035 RMK A01 T00111014  RH  083%=      5-min Rain = 0
KQU1 100043Z 28008KT 01/M01 A3035 RMK A01 T00121014  RH  083%=      5-min Rain = 0
KQU1 100044Z 28009KT 01/M01 A3035 RMK A01 T00131012  RH  083%=      5-min Rain = 0
KQU1 100045Z 28009KT 02/M01 A3035 RMK A01 T00151012  RH  082%=      5-min Rain = 0
KQU1 100046Z 28008KT 02/M01 A3035 RMK A01 T00161012  RH  082%=      5-min Rain = 0
KQU1 100047Z 28009KT 02/M01 A3035 RMK A01 T00171012  RH  081%=      5-min Rain = 0
KQU1 100048Z 28008KT 02/M01 A3035 RMK A01 T00171013  RH  081%=      5-min Rain = 0
KQU1 100049Z 28008KT 02/M01 A3035 RMK A01 T00171013  RH  080%=      5-min Rain = 0
KQU1 100050Z 27008KT 02/M01 A3035 RMK A01 T00171014  RH  080%=      5-min Rain = 0
KQU1 100051Z 27008KT 02/M01 A3035 RMK A01 T00171014  RH  080%=      5-min Rain = 0
KQU1 100052Z 27009KT 02/M01 A3035 RMK A01 T00171014  RH  080%=      5-min Rain = 0
KQU1 100053Z 27009KT 02/M01 A3035 RMK A01 T00171014  RH  080%=      5-min Rain = 0
KQU1 100054Z 27010KT 02/M01 A3035 RMK A01 T00171013  RH  080%=      5-min Rain = 0
KQU1 100055Z 27010KT 02/M01 A3035 RMK A01 T00181013  RH  080%=      5-min Rain = 0
KQU1 100056Z 27010KT 02/M01 A3035 RMK A01 T00181013  RH  080%=      5-min Rain = 0
KQU1 100057Z 27010KT 02/M01 A3035 RMK A01 T00191013  RH  079%=      5-min Rain = 0
KQU1 100058Z 27010KT 02/M01 A3035 RMK A01 T00191013  RH  079%=      5-min Rain = 0
KQU1 100059Z 28009KT 02/M01 A3035 RMK A01 T00191014  RH  079%=      5-min Rain = 0
KQU1 100100Z 28009KT 02/M01 A3035 RMK A01 T00201014  RH  078%=      5-min Rain = 0
KQU1 100101Z 27009KT 02/M01 A3035 RMK A01 T00191014  RH  078%=      5-min Rain = 0
KQU1 100102Z 27009KT 02/M01 A3035 RMK A01 T00191014  RH  078%=      5-min Rain = 0
KQU1 100103Z 27009KT 02/M02 A3035 RMK A01 T00191015  RH  078%=      5-min Rain = 0
KQU1 100104Z 27009KT 02/M02 A3035 RMK A01 T00191015  RH  079%=      5-min Rain = 0
KQU1 100105Z 27009KT 02/M02 A3035 RMK A01 T00181015  RH  079%=      5-min Rain = 0
KQU1 100106Z 27009KT 02/M02 A3036 RMK A01 T00181015  RH  079%=      5-min Rain = 0
KQU1 100107Z 27009KT 02/M02 A3036 RMK A01 T00181015  RH  079%=      5-min Rain = 0
KQU1 100108Z 27010KT 02/M02 A3036 RMK A01 T00181015  RH  079%=      5-min Rain = 0
KQU1 100109Z 27009KT 02/M02 A3036 RMK A01 T00181015  RH  079%=      5-min Rain = 0
KQU1 100110Z 28009KT 02/M02 A3036 RMK A01 T00181015  RH  079%=      5-min Rain = 0
KQU1 100111Z 28010KT 02/M01 A3036 RMK A01 T00181014  RH  079%=      5-min Rain = 0
KQU1 100112Z 28010KT 02/M01 A3036 RMK A01 T00191014  RH  079%=      5-min Rain = 0
KQU1 100113Z 28010KT 02/M01 A3036 RMK A01 T00201014  RH  078%=      5-min Rain = 0
KQU1 100114Z 27010KT 02/M01 A3036 RMK A01 T00201014  RH  078%=      5-min Rain = 0
KQU1 100115Z 27010KT 02/M01 A3036 RMK A01 T00201014  RH  078%=      5-min Rain = 0
KQU1 100116Z 27010KT 02/M01 A3036 RMK A01 T00201014  RH  078%=      5-min Rain = 0
KQU1 100117Z 27010KT 02/M01 A3036 RMK A01 T00211014  RH  078%=      5-min Rain = 0
KQU1 100118Z 27010KT 02/M01 A3036 RMK A01 T00211014  RH  078%=      5-min Rain = 0
KQU1 100119Z 27010KT 02/M01 A3036 RMK A01 T00221014  RH  077%=      5-min Rain = 0
KQU1 100120Z 27009KT 02/M01 A3036 RMK A01 T00221014  RH  077%=      5-min Rain = 0
KQU1 100121Z 27010KT 02/M01 A3036 RMK A01 T00221014  RH  077%=      5-min Rain = 0
KQU1 100122Z 27009KT 02/M01 A3036 RMK A01 T00231014  RH  077%=      5-min Rain = 0
KQU1 100123Z 27009KT 02/M01 A3036 RMK A01 T00231014  RH  077%=      5-min Rain = 0
KQU1 100124Z 27009KT 02/M01 A3036 RMK A01 T00231014  RH  077%=      5-min Rain = 0
KQU1 100125Z 27010KT 02/M01 A3036 RMK A01 T00231014  RH  076%=      5-min Rain = 0
KQU1 100126Z 27010KT 02/M01 A3036 RMK A01 T00231014  RH  077%=      5-min Rain = 0
KQU1 100127Z 27009KT 02/M01 A3036 RMK A01 T00231014  RH  077%=      5-min Rain = 0
KQU1 100128Z 27010KT 02/M01 A3036 RMK A01 T00231014  RH  077%=      5-min Rain = 0
KQU1 100129Z 28009KT 02/M01 A3036 RMK A01 T00231014  RH  077%=      5-min Rain = 0
KQU1 100130Z 28009KT 02/M01 A3036 RMK A01 T00231014  RH  077%=      5-min Rain = 0
KQU1 100131Z 27010KT 02/M01 A3036 RMK A01 T00231014  RH  076%=      5-min Rain = 0
KQU1 100132Z 27010KT 02/M01 A3036 RMK A01 T00241014  RH  076%=      5-min Rain = 0
KQU1 100133Z 27010KT 02/M01 A3036 RMK A01 T00241013  RH  076%=      5-min Rain = 0
KQU1 100134Z 27009KT 02/M01 A3036 RMK A01 T00241013  RH  076%=      5-min Rain = 0
KQU1 100135Z 27009KT 02/M01 A3036 RMK A01 T00241014  RH  076%=      5-min Rain = 0
KQU1 100136Z 27009KT 03/M01 A3036 RMK A01 T00251014  RH  076%=      5-min Rain = 0
KQU1 100137Z 27009KT 03/M01 A3036 RMK A01 T00251014  RH  076%=      5-min Rain = 0
KQU1 100138Z 27009KT 03/M01 A3036 RMK A01 T00251014  RH  075%=      5-min Rain = 0
KQU1 100139Z 27009KT 03/M01 A3036 RMK A01 T00251014  RH  075%=      5-min Rain = 0
KQU1 100140Z 27009KT 02/M01 A3036 RMK A01 T00241014  RH  076%=      5-min Rain = 0
KQU1 100141Z 27009KT 02/M02 A3036 RMK A01 T00241015  RH  076%=      5-min Rain = 0
KQU1 100142Z 27008KT 02/M02 A3036 RMK A01 T00241015  RH  076%=      5-min Rain = 0
KQU1 100143Z 27009KT 02/M02 A3036 RMK A01 T00231015  RH  076%=      5-min Rain = 0
KQU1 100144Z 27009KT 02/M01 A3036 RMK A01 T00231014  RH  076%=      5-min Rain = 0
KQU1 100145Z 27008KT 02/M02 A3036 RMK A01 T00231015  RH  076%=      5-min Rain = 0
KQU1 100146Z 27008KT 02/M02 A3036 RMK A01 T00231015  RH  076%=      5-min Rain = 0
KQU1 100147Z 27009KT 02/M02 A3036 RMK A01 T00231015  RH  076%=      5-min Rain = 0
KQU1 100148Z 27010KT 02/M01 A3036 RMK A01 T00231014  RH  076%=      5-min Rain = 0
KQU1 100149Z 27010KT 02/M01 A3035 RMK A01 T00231014  RH  076%=      5-min Rain = 0
KQU1 100150Z 27010KT 02/M01 A3035 RMK A01 T00241014  RH  076%=      5-min Rain = 0
KQU1 100151Z 27010KT 02/M01 A3035 RMK A01 T00241014  RH  076%=      5-min Rain = 0
KQU1 100152Z 27010KT 02/M01 A3035 RMK A01 T00241014  RH  076%=      5-min Rain = 0
KQU1 100153Z 27010KT 02/M01 A3036 RMK A01 T00241014  RH  076%=      5-min Rain = 0
KQU1 100154Z 27010KT 02/M01 A3036 RMK A01 T00241014  RH  076%=      5-min Rain = 0
KQU1 100155Z 27010KT 02/M01 A3036 RMK A01 T00241014  RH  076%=      5-min Rain = 0
KQU1 100156Z 27010KT 02/M01 A3036 RMK A01 T00241014  RH  076%=      5-min Rain = 0
KQU1 100157Z 27010KT 02/M01 A3036 RMK A01 T00241014  RH  076%=      5-min Rain = 0
KQU1 100158Z 27010KT 02/M01 A3036 RMK A01 T00241014  RH  076%=      5-min Rain = 0
KQU1 100159Z 27010KT 02/M01 A3036 RMK A01 T00231014  RH  076%=      5-min Rain = 0
KQU1 100200Z 27010KT 02/M01 A3036 RMK A01 T00231014  RH  076%=      5-min Rain = 0
KQU1 100201Z 27010KT 02/M01 A3036 RMK A01 T00241014  RH  076%=      5-min Rain = 0
KQU1 100202Z 27010KT 02/M01 A3036 RMK A01 T00241014  RH  076%=      5-min Rain = 0
KQU1 100203Z 27010KT 02/M01 A3036 RMK A01 T00241014  RH  076%=      5-min Rain = 0
KQU1 100204Z 27010KT 02/M01 A3036 RMK A01 T00241014  RH  076%=      5-min Rain = 0
KQU1 100205Z 27009KT 02/M02 A3036 RMK A01 T00231015  RH  076%=      5-min Rain = 0
KQU1 100206Z 27009KT 02/M02 A3036 RMK A01 T00221015  RH  076%=      5-min Rain = 0
KQU1 100207Z 28007KT 02/M02 A3036 RMK A01 T00211016  RH  076%=      5-min Rain = 0
KQU1 100208Z 28007KT 02/M02 A3036 RMK A01 T00191016  RH  077%=      5-min Rain = 0
KQU1 100209Z 28007KT 02/M02 A3036 RMK A01 T00181017  RH  078%=      5-min Rain = 0
KQU1 100210Z 28007KT 02/M02 A3036 RMK A01 T00171017  RH  078%=      5-min Rain = 0
KQU1 100211Z 27006KT 02/M02 A3036 RMK A01 T00161018  RH  078%=      5-min Rain = 0
KQU1 100212Z 28006KT 02/M02 A3036 RMK A01 T00151018  RH  079%=      5-min Rain = 0
KQU1 100213Z 27006KT 02/M02 A3036 RMK A01 T00151017  RH  079%=      5-min Rain = 0
KQU1 100214Z 27006KT 02/M02 A3036 RMK A01 T00161016  RH  080%=      5-min Rain = 0
KQU1 100215Z 28006KT 02/M02 A3036 RMK A01 T00171016  RH  079%=      5-min Rain = 0
KQU1 100216Z 28005KT 02/M02 A3036 RMK A01 T00171016  RH  079%=      5-min Rain = 0
KQU1 100217Z 27006KT 02/M02 A3036 RMK A01 T00171016  RH  078%=      5-min Rain = 0
KQU1 100218Z 27006KT 02/M02 A3036 RMK A01 T00181016  RH  078%=      5-min Rain = 0
KQU1 100219Z 27006KT 02/M02 A3036 RMK A01 T00191016  RH  078%=      5-min Rain = 0
KQU1 100220Z 27006KT 02/M02 A3036 RMK A01 T00191015  RH  078%=      5-min Rain = 0
KQU1 100221Z 27007KT 02/M02 A3036 RMK A01 T00201015  RH  078%=      5-min Rain = 0
KQU1 100222Z 27007KT 02/M02 A3036 RMK A01 T00211015  RH  077%=      5-min Rain = 0
KQU1 100223Z 27008KT 02/M02 A3036 RMK A01 T00211015  RH  077%=      5-min Rain = 0
KQU1 100224Z 27008KT 02/M02 A3036 RMK A01 T00221015  RH  077%=      5-min Rain = 0
KQU1 100225Z 28007KT 02/M02 A3036 RMK A01 T00221015  RH  076%=      5-min Rain = 0
KQU1 100226Z 28007KT 02/M02 A3036 RMK A01 T00221015  RH  076%=      5-min Rain = 0
KQU1 100227Z 28007KT 02/M02 A3036 RMK A01 T00211016  RH  077%=      5-min Rain = 0
KQU1 100228Z 28007KT 02/M02 A3036 RMK A01 T00191017  RH  077%=      5-min Rain = 0
KQU1 100229Z 29007KT 02/M02 A3036 RMK A01 T00181017  RH  078%=      5-min Rain = 0
KQU1 100230Z 28008KT 02/M02 A3036 RMK A01 T00181017  RH  078%=      5-min Rain = 0
KQU1 100231Z 28008KT 02/M02 A3037 RMK A01 T00171017  RH  078%=      5-min Rain = 0
KQU1 100232Z 28008KT 02/M02 A3037 RMK A01 T00171017  RH  078%=      5-min Rain = 0
KQU1 100233Z 28008KT 02/M02 A3037 RMK A01 T00161017  RH  079%=      5-min Rain = 0
KQU1 100234Z 28008KT 02/M02 A3037 RMK A01 T00161017  RH  079%=      5-min Rain = 0
KQU1 100235Z 28008KT 02/M02 A3037 RMK A01 T00161017  RH  079%=      5-min Rain = 0
KQU1 100236Z 28007KT 02/M02 A3037 RMK A01 T00161017  RH  079%=      5-min Rain = 0
KQU1 100237Z 27007KT 02/M02 A3037 RMK A01 T00151017  RH  079%=      5-min Rain = 0
KQU1 100238Z 27007KT 02/M02 A3037 RMK A01 T00151017  RH  079%=      5-min Rain = 0
KQU1 100239Z 28007KT 02/M02 A3037 RMK A01 T00151017  RH  079%=      5-min Rain = 0
KQU1 100240Z 27007KT 02/M02 A3037 RMK A01 T00151017  RH  079%=      5-min Rain = 0
KQU1 100241Z 27007KT 02/M02 A3037 RMK A01 T00151017  RH  079%=      5-min Rain = 0
KQU1 100242Z 27007KT 02/M02 A3037 RMK A01 T00151016  RH  079%=      5-min Rain = 0
KQU1 100243Z 28007KT 02/M02 A3037 RMK A01 T00161016  RH  079%=      5-min Rain = 0
KQU1 100244Z 28007KT 02/M02 A3037 RMK A01 T00171016  RH  079%=      5-min Rain = 0
KQU1 100245Z 28007KT 02/M02 A3037 RMK A01 T00181015  RH  079%=      5-min Rain = 0
KQU1 100246Z 28007KT 02/M02 A3037 RMK A01 T00191015  RH  078%=      5-min Rain = 0
KQU1 100247Z 28006KT 02/M02 A3037 RMK A01 T00201015  RH  078%=      5-min Rain = 0
KQU1 100248Z 28007KT 02/M02 A3037 RMK A01 T00201015  RH  078%=      5-min Rain = 0
KQU1 100249Z 28007KT 02/M02 A3037 RMK A01 T00191016  RH  078%=      5-min Rain = 0
KQU1 100250Z 28007KT 02/M02 A3037 RMK A01 T00191016  RH  078%=      5-min Rain = 0
KQU1 100251Z 28007KT 02/M02 A3037 RMK A01 T00181016  RH  078%=      5-min Rain = 0
KQU1 100252Z 28006KT 02/M02 A3037 RMK A01 T00181016  RH  078%=      5-min Rain = 0
KQU1 100253Z 28007KT 02/M02 A3037 RMK A01 T00171017  RH  078%=      5-min Rain = 0
KQU1 100254Z 28006KT 02/M02 A3037 RMK A01 T00161017  RH  078%=      5-min Rain = 0
KQU1 100255Z 28006KT 02/M02 A3037 RMK A01 T00151018  RH  079%=      5-min Rain = 0
KQU1 100256Z 28007KT 02/M02 A3037 RMK A01 T00151018  RH  079%=      5-min Rain = 0
KQU1 100257Z 27007KT 02/M02 A3037 RMK A01 T00151017  RH  079%=      5-min Rain = 0
KQU1 100258Z 28007KT 02/M02 A3037 RMK A01 T00151017  RH  079%=      5-min Rain = 0
KQU1 100259Z 28007KT 01/M02 A3037 RMK A01 T00141018  RH  079%=      5-min Rain = 0
KQU1 100300Z 28007KT 01/M02 A3037 RMK A01 T00141018  RH  079%=      5-min Rain = 0
KQU1 100301Z 29006KT 01/M02 A3037 RMK A01 T00141018  RH  079%=      5-min Rain = 0
KQU1 100302Z 28007KT 01/M02 A3037 RMK A01 T00131018  RH  080%=      5-min Rain = 0
KQU1 100303Z 28007KT 01/M02 A3037 RMK A01 T00131018  RH  080%=      5-min Rain = 0
KQU1 100304Z 28008KT 01/M02 A3037 RMK A01 T00131018  RH  080%=      5-min Rain = 0
KQU1 100305Z 28008KT 01/M02 A3037 RMK A01 T00141017  RH  080%=      5-min Rain = 0
KQU1 100306Z 28008KT 02/M02 A3037 RMK A01 T00151017  RH  079%=      5-min Rain = 0
KQU1 100307Z 28007KT 02/M02 A3037 RMK A01 T00151017  RH  079%=      5-min Rain = 0
KQU1 100308Z 28008KT 02/M02 A3037 RMK A01 T00151017  RH  079%=      5-min Rain = 0
KQU1 100309Z 28007KT 02/M02 A3037 RMK A01 T00151017  RH  079%=      5-min Rain = 0
KQU1 100310Z 28007KT 02/M02 A3037 RMK A01 T00161017  RH  079%=      5-min Rain = 0
KQU1 100311Z 29007KT 02/M02 A3037 RMK A01 T00171017  RH  078%=      5-min Rain = 0
KQU1 100312Z 29008KT 02/M02 A3037 RMK A01 T00171017  RH  078%=      5-min Rain = 0
KQU1 100313Z 29009KT 02/M02 A3037 RMK A01 T00171017  RH  078%=      5-min Rain = 0
KQU1 100314Z 28008KT 02/M02 A3037 RMK A01 T00171018  RH  078%=      5-min Rain = 0
KQU1 100315Z 28008KT 02/M02 A3037 RMK A01 T00171018  RH  078%=      5-min Rain = 0
KQU1 100316Z 28009KT 02/M02 A3037 RMK A01 T00171018  RH  078%=      5-min Rain = 0
KQU1 100317Z 27008KT 02/M02 A3037 RMK A01 T00171018  RH  078%=      5-min Rain = 0
KQU1 100318Z 28008KT 02/M02 A3037 RMK A01 T00171018  RH  077%=      5-min Rain = 0
KQU1 100319Z 28008KT 02/M02 A3037 RMK A01 T00181018  RH  077%=      5-min Rain = 0
KQU1 100320Z 27007KT 02/M02 A3037 RMK A01 T00181018  RH  077%=      5-min Rain = 0
KQU1 100321Z 27007KT 02/M02 A3037 RMK A01 T00171018  RH  077%=      5-min Rain = 0
KQU1 100322Z 27009KT 02/M02 A3036 RMK A01 T00181018  RH  077%=      5-min Rain = 0
KQU1 100323Z 27010KT 02/M02 A3036 RMK A01 T00181018  RH  077%=      5-min Rain = 0
KQU1 100324Z 27010KT 02/M02 A3036 RMK A01 T00191018  RH  076%=      5-min Rain = 0
KQU1 100325Z 27011KT 02/M02 A3036 RMK A01 T00201018  RH  076%=      5-min Rain = 0
KQU1 100326Z 27010KT 02/M02 A3036 RMK A01 T00211018  RH  075%=      5-min Rain = 0
KQU1 100327Z 27010KT 02/M02 A3036 RMK A01 T00211019  RH  075%=      5-min Rain = 0
KQU1 100328Z 27010KT 02/M02 A3037 RMK A01 T00221019  RH  075%=      5-min Rain = 0
KQU1 100329Z 28010KT 02/M02 A3037 RMK A01 T00221019  RH  074%=      5-min Rain = 0
KQU1 100330Z 28009KT 02/M02 A3037 RMK A01 T00221019  RH  074%=      5-min Rain = 0
KQU1 100331Z 29008KT 02/M02 A3037 RMK A01 T00201020  RH  075%=      5-min Rain = 0
KQU1 100332Z 29010KT 02/M02 A3037 RMK A01 T00191021  RH  075%=      5-min Rain = 0
KQU1 100333Z 29010KT 02/M02 A3037 RMK A01 T00171021  RH  076%=      5-min Rain = 0
KQU1 100334Z 29010KT 02/M02 A3037 RMK A01 T00171020  RH  076%=      5-min Rain = 0
KQU1 100335Z 29011KT 02/M02 A3037 RMK A01 T00171020  RH  076%=      5-min Rain = 0
KQU1 100336Z 29012KT 02/M02 A3037 RMK A01 T00171020  RH  076%=      5-min Rain = 0
KQU1 100337Z 29013KT 02/M02 A3037 RMK A01 T00171020  RH  076%=      5-min Rain = 0
KQU1 100338Z 29013KT 02/M02 A3037 RMK A01 T00181020  RH  076%=      5-min Rain = 0
KQU1 100339Z 29011KT 02/M02 A3037 RMK A01 T00181019  RH  076%=      5-min Rain = 0
KQU1 100340Z 29011KT 02/M02 A3037 RMK A01 T00191019  RH  076%=      5-min Rain = 0
KQU1 100341Z 29011KT 02/M02 A3037 RMK A01 T00201019  RH  075%=      5-min Rain = 0
KQU1 100342Z 28010KT 02/M02 A3037 RMK A01 T00211019  RH  075%=      5-min Rain = 0
KQU1 100343Z 28008KT 02/M02 A3037 RMK A01 T00211019  RH  075%=      5-min Rain = 0
KQU1 100344Z 28008KT 02/M02 A3037 RMK A01 T00201020  RH  074%=      5-min Rain = 0
KQU1 100345Z 28008KT 02/M02 A3037 RMK A01 T00191021  RH  075%=      5-min Rain = 0
KQU1 100346Z 28008KT 02/M02 A3037 RMK A01 T00181021  RH  075%=      5-min Rain = 0
KQU1 100347Z 27008KT 02/M02 A3037 RMK A01 T00181021  RH  075%=      5-min Rain = 0
KQU1 100348Z 27009KT 02/M02 A3037 RMK A01 T00171021  RH  076%=      5-min Rain = 0
KQU1 100349Z 27008KT 02/M02 A3037 RMK A01 T00161021  RH  076%=      5-min Rain = 0
KQU1 100350Z 27009KT 02/M02 A3037 RMK A01 T00161021  RH  076%=      5-min Rain = 0
KQU1 100351Z 27008KT 02/M02 A3037 RMK A01 T00161021  RH  076%=      5-min Rain = 0
KQU1 100352Z 27009KT 02/M02 A3037 RMK A01 T00161021  RH  077%=      5-min Rain = 0
KQU1 100353Z 27009KT 02/M02 A3037 RMK A01 T00171020  RH  076%=      5-min Rain = 0
KQU1 100354Z 27010KT 02/M02 A3037 RMK A01 T00181020  RH  076%=      5-min Rain = 0
KQU1 100355Z 27010KT 02/M02 A3037 RMK A01 T00191020  RH  075%=      5-min Rain = 0
KQU1 100356Z 27010KT 02/M02 A3036 RMK A01 T00201020  RH  075%=      5-min Rain = 0
KQU1 100357Z 27010KT 02/M02 A3036 RMK A01 T00201021  RH  074%=      5-min Rain = 0
KQU1 100358Z 27011KT 02/M02 A3036 RMK A01 T00201021  RH  074%=      5-min Rain = 0
KQU1 100359Z 27011KT 02/M02 A3036 RMK A01 T00211021  RH  074%=      5-min Rain = 0
KQU1 100400Z 27010KT 02/M02 A3036 RMK A01 T00211021  RH  074%=      5-min Rain = 0
KQU1 100401Z 27010KT 02/M02 A3036 RMK A01 T00211021  RH  074%=      5-min Rain = 0
KQU1 100402Z 27011KT 02/M02 A3036 RMK A01 T00201021  RH  074%=      5-min Rain = 0
KQU1 100403Z 28011KT 02/M02 A3036 RMK A01 T00201021  RH  074%=      5-min Rain = 0
KQU1 100404Z 27011KT 02/M02 A3036 RMK A01 T00201021  RH  074%=      5-min Rain = 0
KQU1 100405Z 27012KT 02/M02 A3036 RMK A01 T00201022  RH  074%=      5-min Rain = 0
KQU1 100406Z 27011KT 02/M02 A3036 RMK A01 T00211022  RH  074%=      5-min Rain = 0
KQU1 100407Z 27010KT 02/M02 A3036 RMK A01 T00211022  RH  073%=      5-min Rain = 0
KQU1 100408Z 27011KT 02/M02 A3036 RMK A01 T00211022  RH  073%=      5-min Rain = 0
KQU1 100409Z 27012KT 02/M02 A3036 RMK A01 T00211022  RH  073%=      5-min Rain = 0
KQU1 100410Z 27011KT 02/M02 A3036 RMK A01 T00211022  RH  073%=      5-min Rain = 0
KQU1 100411Z 27012KT 02/M02 A3036 RMK A01 T00211022  RH  073%=      5-min Rain = 0
KQU1 100412Z 27013KT 02/M02 A3036 RMK A01 T00211022  RH  073%=      5-min Rain = 0
KQU1 100413Z 28012KT 02/M02 A3037 RMK A01 T00221022  RH  073%=      5-min Rain = 0
KQU1 100414Z 28012KT 02/M02 A3037 RMK A01 T00211022  RH  073%=      5-min Rain = 0
KQU1 100415Z 28012KT 02/M02 A3037 RMK A01 T00211022  RH  073%=      5-min Rain = 0
KQU1 100416Z 28012KT 02/M02 A3037 RMK A01 T00211023  RH  073%=      5-min Rain = 0
KQU1 100417Z 28012KT 02/M02 A3037 RMK A01 T00211022  RH  073%=      5-min Rain = 0
KQU1 100418Z 28011KT 02/M02 A3037 RMK A01 T00211022  RH  073%=      5-min Rain = 0
KQU1 100419Z 28012KT 02/M02 A3037 RMK A01 T00211023  RH  073%=      5-min Rain = 0
KQU1 100420Z 28011KT 02/M02 A3037 RMK A01 T00211023  RH  073%=      5-min Rain = 0
KQU1 100421Z 28012KT 02/M02 A3037 RMK A01 T00211022  RH  073%=      5-min Rain = 0
KQU1 100422Z 28012KT 02/M02 A3037 RMK A01 T00211022  RH  073%=      5-min Rain = 0
KQU1 100423Z 28012KT 02/M02 A3037 RMK A01 T00211023  RH  073%=      5-min Rain = 0
KQU1 100424Z 28013KT 02/M02 A3037 RMK A01 T00221022  RH  072%=      5-min Rain = 0
KQU1 100425Z 28012KT 02/M02 A3037 RMK A01 T00231023  RH  072%=      5-min Rain = 0
KQU1 100426Z 28013KT 02/M02 A3037 RMK A01 T00231023  RH  072%=      5-min Rain = 0
KQU1 100427Z 28012KT 02/M02 A3037 RMK A01 T00231023  RH  071%=      5-min Rain = 0
KQU1 100428Z 28013KT 02/M02 A3037 RMK A01 T00231023  RH  071%=      5-min Rain = 0
KQU1 100429Z 28013KT 02/M02 A3037 RMK A01 T00231023  RH  071%=      5-min Rain = 0
KQU1 100430Z 28013KT 02/M02 A3037 RMK A01 T00231023  RH  071%=      5-min Rain = 0
KQU1 100431Z 28013KT 02/M02 A3037 RMK A01 T00231023  RH  071%=      5-min Rain = 0
KQU1 100432Z 28013KT 02/M02 A3037 RMK A01 T00231024  RH  071%=      5-min Rain = 0
KQU1 100433Z 28013KT 02/M02 A3037 RMK A01 T00231024  RH  071%=      5-min Rain = 0
KQU1 100434Z 28013KT 02/M02 A3037 RMK A01 T00231024  RH  071%=      5-min Rain = 0
KQU1 100435Z 28013KT 02/M02 A3037 RMK A01 T00231024  RH  071%=      5-min Rain = 0
KQU1 100436Z 28013KT 02/M02 A3037 RMK A01 T00231024  RH  071%=      5-min Rain = 0
KQU1 100437Z 28013KT 02/M02 A3037 RMK A01 T00231024  RH  071%=      5-min Rain = 0
KQU1 100438Z 28013KT 02/M02 A3037 RMK A01 T00231024  RH  071%=      5-min Rain = 0
KQU1 100439Z 28014KT 02/M02 A3037 RMK A01 T00241023  RH  071%=      5-min Rain = 0
KQU1 100440Z 28015KT 02/M02 A3037 RMK A01 T00241023  RH  071%=      5-min Rain = 0
KQU1 100441Z 28014KT 03/M02 A3037 RMK A01 T00251024  RH  070%=      5-min Rain = 0
KQU1 100442Z 28014KT 03/M02 A3037 RMK A01 T00251024  RH  070%=      5-min Rain = 0
KQU1 100443Z 28013KT 03/M02 A3037 RMK A01 T00251024  RH  070%=      5-min Rain = 0
KQU1 100444Z 28013KT 03/M02 A3037 RMK A01 T00251024  RH  070%=      5-min Rain = 0
KQU1 100445Z 28013KT 03/M02 A3037 RMK A01 T00251024  RH  070%=      5-min Rain = 0
KQU1 100446Z 28014KT 02/M02 A3037 RMK A01 T00241024  RH  071%=      5-min Rain = 0
KQU1 100447Z 28012KT 02/M02 A3037 RMK A01 T00241024  RH  071%=      5-min Rain = 0
KQU1 100448Z 28014KT 02/M02 A3037 RMK A01 T00231024  RH  071%=      5-min Rain = 0
KQU1 100449Z 28013KT 02/M02 A3037 RMK A01 T00231024  RH  071%=      5-min Rain = 0
KQU1 100450Z 28013KT 02/M02 A3037 RMK A01 T00231024  RH  071%=      5-min Rain = 0
KQU1 100451Z 28013KT 02/M02 A3037 RMK A01 T00231024  RH  071%=      5-min Rain = 0
KQU1 100452Z 28014KT 02/M02 A3037 RMK A01 T00231024  RH  071%=      5-min Rain = 0
KQU1 100453Z 28012KT 02/M02 A3037 RMK A01 T00231024  RH  071%=      5-min Rain = 0
KQU1 100454Z 28012KT 02/M02 A3037 RMK A01 T00231024  RH  071%=      5-min Rain = 0
KQU1 100455Z 28013KT 02/M02 A3037 RMK A01 T00231024  RH  072%=      5-min Rain = 0
KQU1 100456Z 28013KT 02/M02 A3037 RMK A01 T00231023  RH  072%=      5-min Rain = 0
KQU1 100457Z 28013KT 02/M02 A3037 RMK A01 T00231023  RH  071%=      5-min Rain = 0
KQU1 100458Z 28012KT 02/M02 A3037 RMK A01 T00231023  RH  071%=      5-min Rain = 0
KQU1 100459Z 28013KT 02/M02 A3037 RMK A01 T00231023  RH  072%=      5-min Rain = 0
KQU1 100500Z 28013KT 02/M02 A3037 RMK A01 T00231023  RH  072%=      5-min Rain = 0
KQU1 100501Z 29013KT 02/M02 A3037 RMK A01 T00231022  RH  072%=      5-min Rain = 0
KQU1 100502Z 29013KT 02/M02 A3037 RMK A01 T00231022  RH  072%=      5-min Rain = 0
KQU1 100503Z 28013KT 02/M02 A3037 RMK A01 T00241022  RH  072%=      5-min Rain = 0
KQU1 100504Z 29013KT 02/M02 A3037 RMK A01 T00241022  RH  072%=      5-min Rain = 0
KQU1 100505Z 28012KT 02/M02 A3037 RMK A01 T00241022  RH  072%=      5-min Rain = 0
KQU1 100506Z 29012KT 02/M02 A3037 RMK A01 T00241022  RH  072%=      5-min Rain = 0
KQU1 100507Z 29012KT 02/M02 A3037 RMK A01 T00241022  RH  072%=      5-min Rain = 0
KQU1 100508Z 29011KT 02/M02 A3037 RMK A01 T00241022  RH  072%=      5-min Rain = 0
KQU1 100509Z 29012KT 02/M02 A3037 RMK A01 T00231022  RH  072%=      5-min Rain = 0
KQU1 100510Z 29011KT 02/M02 A3037 RMK A01 T00231022  RH  072%=      5-min Rain = 0
KQU1 100511Z 29010KT 02/M02 A3037 RMK A01 T00221022  RH  073%=      5-min Rain = 0
KQU1 100512Z 29011KT 02/M02 A3037 RMK A01 T00221021  RH  073%=      5-min Rain = 0
KQU1 100513Z 29012KT 02/M02 A3037 RMK A01 T00221021  RH  073%=      5-min Rain = 0
KQU1 100514Z 29011KT 02/M02 A3037 RMK A01 T00221021  RH  073%=      5-min Rain = 0
KQU1 100515Z 29012KT 02/M02 A3037 RMK A01 T00211021  RH  073%=      5-min Rain = 0
KQU1 100516Z 29012KT 02/M02 A3037 RMK A01 T00221021  RH  073%=      5-min Rain = 0
KQU1 100517Z 29012KT 02/M02 A3037 RMK A01 T00221021  RH  073%=      5-min Rain = 0
KQU1 100518Z 29012KT 02/M02 A3037 RMK A01 T00221022  RH  073%=      5-min Rain = 0
KQU1 100519Z 29012KT 02/M02 A3037 RMK A01 T00231022  RH  072%=      5-min Rain = 0
KQU1 100520Z 29012KT 02/M02 A3037 RMK A01 T00221023  RH  072%=      5-min Rain = 0
KQU1 100521Z 29011KT 02/M02 A3037 RMK A01 T00211023  RH  073%=      5-min Rain = 0
KQU1 100522Z 29010KT 02/M02 A3037 RMK A01 T00191023  RH  073%=      5-min Rain = 0
KQU1 100523Z 28010KT 02/M02 A3037 RMK A01 T00181024  RH  074%=      5-min Rain = 0
KQU1 100524Z 28011KT 02/M02 A3037 RMK A01 T00171023  RH  074%=      5-min Rain = 0
KQU1 100525Z 28011KT 02/M02 A3037 RMK A01 T00181023  RH  075%=      5-min Rain = 0
KQU1 100526Z 28011KT 02/M02 A3037 RMK A01 T00181023  RH  074%=      5-min Rain = 0
KQU1 100527Z 28011KT 02/M02 A3037 RMK A01 T00191023  RH  074%=      5-min Rain = 0
KQU1 100528Z 28010KT 02/M02 A3037 RMK A01 T00191023  RH  074%=      5-min Rain = 0
KQU1 100529Z 28011KT 02/M02 A3037 RMK A01 T00181024  RH  074%=      5-min Rain = 0
KQU1 100530Z 28010KT 02/M02 A3037 RMK A01 T00171024  RH  074%=      5-min Rain = 0
KQU1 100531Z 28010KT 02/M02 A3037 RMK A01 T00161024  RH  074%=      5-min Rain = 0
KQU1 100532Z 28010KT 02/M02 A3037 RMK A01 T00161024  RH  075%=      5-min Rain = 0
KQU1 100533Z 28011KT 02/M02 A3037 RMK A01 T00171023  RH  075%=      5-min Rain = 0
KQU1 100534Z 28011KT 02/M02 A3037 RMK A01 T00181023  RH  074%=      5-min Rain = 0
KQU1 100535Z 28011KT 02/M02 A3037 RMK A01 T00191023  RH  074%=      5-min Rain = 0
KQU1 100536Z 28010KT 02/M02 A3037 RMK A01 T00191023  RH  073%=      5-min Rain = 0
KQU1 100537Z 28011KT 02/M02 A3037 RMK A01 T00201023  RH  073%=      5-min Rain = 0
KQU1 100538Z 28011KT 02/M02 A3037 RMK A01 T00201023  RH  073%=      5-min Rain = 0
KQU1 100539Z 28011KT 02/M02 A3037 RMK A01 T00211023  RH  073%=      5-min Rain = 0
KQU1 100540Z 28012KT 02/M02 A3037 RMK A01 T00211023  RH  073%=      5-min Rain = 0
KQU1 100541Z 28011KT 02/M02 A3037 RMK A01 T00211023  RH  072%=      5-min Rain = 0
KQU1 100542Z 28012KT 02/M02 A3037 RMK A01 T00211023  RH  072%=      5-min Rain = 0
KQU1 100543Z 28012KT 02/M02 A3037 RMK A01 T00221023  RH  072%=      5-min Rain = 0
KQU1 100544Z 28013KT 02/M02 A3037 RMK A01 T00221023  RH  072%=      5-min Rain = 0
KQU1 100545Z 28013KT 02/M02 A3037 RMK A01 T00231023  RH  071%=      5-min Rain = 0
KQU1 100546Z 28013KT 02/M02 A3037 RMK A01 T00231024  RH  071%=      5-min Rain = 0
KQU1 100547Z 28013KT 02/M02 A3037 RMK A01 T00231024  RH  071%=      5-min Rain = 0
KQU1 100548Z 28012KT 02/M02 A3037 RMK A01 T00231024  RH  071%=      5-min Rain = 0
KQU1 100549Z 28013KT 02/M02 A3037 RMK A01 T00231024  RH  071%=      5-min Rain = 0
KQU1 100550Z 28013KT 02/M02 A3037 RMK A01 T00231024  RH  071%=      5-min Rain = 0
KQU1 100551Z 28012KT 02/M03 A3037 RMK A01 T00221025  RH  071%=      5-min Rain = 0
KQU1 100552Z 28012KT 02/M03 A3037 RMK A01 T00221025  RH  071%=      5-min Rain = 0
KQU1 100553Z 28011KT 02/M03 A3037 RMK A01 T00211025  RH  072%=      5-min Rain = 0
KQU1 100554Z 28013KT 02/M03 A3037 RMK A01 T00211025  RH  072%=      5-min Rain = 0
KQU1 100555Z 28012KT 02/M03 A3037 RMK A01 T00201025  RH  072%=      5-min Rain = 0
KQU1 100556Z 28011KT 02/M03 A3037 RMK A01 T00191025  RH  072%=      5-min Rain = 0
KQU1 100557Z 28012KT 02/M03 A3037 RMK A01 T00191025  RH  073%=      5-min Rain = 0
KQU1 100558Z 28011KT 02/M03 A3036 RMK A01 T00181025  RH  073%=      5-min Rain = 0
KQU1 100559Z 28011KT 02/M03 A3036 RMK A01 T00181025  RH  073%=      5-min Rain = 0

Page generated in 0.1211 seconds.